Time,TemperatureF,DewpointF,PressureIn,WindDirection,WindDirectionDegrees,WindSpeedMPH,WindSpeedGustMPH,Humidity,HourlyPrecipIn,Conditions,Clouds,dailyrainin,SoftwareType,DateUTC
2013-05-05 00:00:00,54.1,54.1,30.38,East,90,5.0,5.0,0,0.00,,,0.00,meteohub,2013-05-05 04:00:00,
2013-05-05 00:01:00,54.1,54.1,30.38,East,90,5.0,5.0,0,0.00,,,0.00,meteohub,2013-05-05 04:01:00,
2013-05-05 00:02:00,54.1,54.1,30.38,East,90,5.0,5.0,0,0.00,,,0.00,meteohub,2013-05-05 04:02:00,
2013-05-05 00:06:00,54.1,54.1,30.38,East,90,5.0,6.0,0,0.00,,,0.00,meteohub,2013-05-05 04:06:00,
2013-05-05 00:07:00,54.1,54.1,30.38,SE,135,4.0,6.0,0,0.00,,,0.00,meteohub,2013-05-05 04:07:00,
2013-05-05 00:08:00,54.1,54.1,30.38,East,90,3.0,6.0,0,0.00,,,0.00,meteohub,2013-05-05 04:08:00,
2013-05-05 00:12:00,54.0,54.0,30.38,East,90,2.0,6.0,0,0.00,,,0.00,meteohub,2013-05-05 04:12:00,
2013-05-05 00:13:00,54.0,54.0,30.38,SE,135,3.0,6.0,0,0.00,,,0.00,meteohub,2013-05-05 04:13:00,
2013-05-05 00:14:00,53.8,53.8,30.38,East,90,2.0,6.0,0,0.00,,,0.00,meteohub,2013-05-05 04:14:00,
2013-05-05 00:18:00,53.6,53.6,30.38,East,90,4.0,5.0,0,0.00,,,0.00,meteohub,2013-05-05 04:18:00,
2013-05-05 00:19:00,53.6,53.6,30.38,SE,135,2.0,5.0,0,0.00,,,0.00,meteohub,2013-05-05 04:19:00,
2013-05-05 00:20:00,53.6,53.6,30.38,East,90,2.0,5.0,0,0.00,,,0.00,meteohub,2013-05-05 04:20:00,
2013-05-05 00:24:00,53.4,53.4,30.38,East,90,2.0,5.0,0,0.00,,,0.00,meteohub,2013-05-05 04:24:00,
2013-05-05 00:25:00,53.2,53.2,30.38,SE,135,2.0,4.0,0,0.00,,,0.00,meteohub,2013-05-05 04:25:00,
2013-05-05 00:27:00,53.2,53.2,30.38,East,90,2.0,4.0,0,0.00,,,0.00,meteohub,2013-05-05 04:27:00,
2013-05-05 00:29:00,53.1,53.1,30.38,East,90,2.0,4.0,0,0.00,,,0.00,meteohub,2013-05-05 04:29:00,
2013-05-05 00:30:00,53.1,53.1,30.38,SE,135,2.0,4.0,0,0.00,,,0.00,meteohub,2013-05-05 04:30:00,
2013-05-05 00:32:00,52.9,52.9,30.38,SE,135,2.0,4.0,0,0.00,,,0.00,meteohub,2013-05-05 04:32:00,
2013-05-05 00:34:00,52.9,52.9,30.38,East,90,3.0,4.0,0,0.00,,,0.00,meteohub,2013-05-05 04:34:00,
2013-05-05 00:35:00,52.7,52.7,30.38,SE,135,2.0,3.0,0,0.00,,,0.00,meteohub,2013-05-05 04:35:00,
2013-05-05 00:37:00,52.7,52.7,30.38,SE,135,2.0,3.0,0,0.00,,,0.00,meteohub,2013-05-05 04:37:00,
2013-05-05 00:40:00,52.5,52.5,30.38,SE,135,2.0,3.0,0,0.00,,,0.00,meteohub,2013-05-05 04:40:00,
2013-05-05 00:41:00,52.5,52.5,30.38,East,90,2.0,3.0,0,0.00,,,0.00,meteohub,2013-05-05 04:41:00,
2013-05-05 00:43:00,52.5,52.5,30.38,SE,135,3.0,3.0,0,0.00,,,0.00,meteohub,2013-05-05 04:43:00,
2013-05-05 00:45:00,52.3,52.3,30.38,SE,135,3.0,3.0,0,0.00,,,0.00,meteohub,2013-05-05 04:45:00,
2013-05-05 00:46:00,52.3,52.3,30.38,SE,135,3.0,3.0,0,0.00,,,0.00,meteohub,2013-05-05 04:46:00,
2013-05-05 00:47:00,52.3,52.3,30.38,East,90,3.0,3.0,0,0.00,,,0.00,meteohub,2013-05-05 04:47:00,
2013-05-05 00:48:00,52.3,52.3,30.38,SE,135,4.0,4.0,0,0.00,,,0.00,meteohub,2013-05-05 04:48:00,
2013-05-05 00:51:00,52.3,52.3,30.38,NE,45,4.0,4.0,0,0.00,,,0.00,meteohub,2013-05-05 04:51:00,
2013-05-05 00:52:00,52.3,52.3,30.38,East,90,4.0,4.0,0,0.00,,,0.00,meteohub,2013-05-05 04:52:00,
2013-05-05 00:53:00,52.3,52.3,30.38,South,180,4.0,4.0,0,0.00,,,0.00,meteohub,2013-05-05 04:53:00,
2013-05-05 00:54:00,52.5,52.5,30.38,SE,135,4.0,4.0,0,0.00,,,0.00,meteohub,2013-05-05 04:54:00,
2013-05-05 00:57:00,52.5,52.5,30.38,East,90,4.0,4.0,0,0.00,,,0.00,meteohub,2013-05-05 04:57:00,
2013-05-05 00:58:00,52.5,52.5,30.38,East,90,4.0,4.0,0,0.00,,,0.00,meteohub,2013-05-05 04:58:00,
2013-05-05 00:59:00,52.5,52.5,30.38,East,90,4.0,4.0,0,0.00,,,0.00,meteohub,2013-05-05 04:59:00,
2013-05-05 01:03:00,52.5,52.5,30.38,East,90,3.0,4.0,0,0.00,,,0.00,meteohub,2013-05-05 05:03:00,
2013-05-05 01:04:00,52.5,52.5,30.37,East,90,3.0,4.0,0,0.00,,,0.00,meteohub,2013-05-05 05:04:00,
2013-05-05 01:05:00,52.5,52.5,30.37,East,90,3.0,4.0,0,0.00,,,0.00,meteohub,2013-05-05 05:05:00,
2013-05-05 01:07:00,52.5,52.5,30.37,SE,135,4.0,4.0,0,0.00,,,0.00,meteohub,2013-05-05 05:07:00,
2013-05-05 01:09:00,52.5,52.5,30.38,SE,135,4.0,4.0,0,0.00,,,0.00,meteohub,2013-05-05 05:09:00,
2013-05-05 01:10:00,52.3,52.3,30.37,SE,135,4.0,4.0,0,0.00,,,0.00,meteohub,2013-05-05 05:10:00,
2013-05-05 01:11:00,52.3,52.3,30.37,SE,135,3.0,4.0,0,0.00,,,0.00,meteohub,2013-05-05 05:11:00,
2013-05-05 01:12:00,52.3,52.3,30.37,East,90,4.0,4.0,0,0.00,,,0.00,meteohub,2013-05-05 05:12:00,
2013-05-05 01:14:00,52.3,52.3,30.38,SE,135,4.0,4.0,0,0.00,,,0.00,meteohub,2013-05-05 05:14:00,
2013-05-05 01:16:00,52.3,52.3,30.36,East,90,4.0,4.0,0,0.00,,,0.00,meteohub,2013-05-05 05:16:00,
2013-05-05 01:17:00,52.3,52.3,30.37,East,90,4.0,4.0,0,0.00,,,0.00,meteohub,2013-05-05 05:17:00,
2013-05-05 01:18:00,52.3,52.3,30.37,SE,135,4.0,4.0,0,0.00,,,0.00,meteohub,2013-05-05 05:18:00,
2013-05-05 01:20:00,52.5,52.5,30.37,SE,135,4.0,4.0,0,0.00,,,0.00,meteohub,2013-05-05 05:20:00,
2013-05-05 01:21:00,52.5,52.5,30.38,SE,135,4.0,4.0,0,0.00,,,0.00,meteohub,2013-05-05 05:21:00,
2013-05-05 01:23:00,52.5,52.5,30.38,SE,135,4.0,4.0,0,0.00,,,0.00,meteohub,2013-05-05 05:23:00,
2013-05-05 01:24:00,52.5,52.5,30.38,SE,135,3.0,4.0,0,0.00,,,0.00,meteohub,2013-05-05 05:24:00,
2013-05-05 01:25:00,52.5,52.5,30.37,East,90,4.0,4.0,0,0.00,,,0.00,meteohub,2013-05-05 05:25:00,
2013-05-05 01:27:00,52.5,52.5,30.38,SE,135,3.0,4.0,0,0.00,,,0.00,meteohub,2013-05-05 05:27:00,
2013-05-05 01:28:00,52.5,52.5,30.38,SE,135,3.0,4.0,0,0.00,,,0.00,meteohub,2013-05-05 05:28:00,
2013-05-05 01:29:00,52.3,52.3,30.37,South,180,3.0,4.0,0,0.00,,,0.00,meteohub,2013-05-05 05:29:00,
2013-05-05 01:31:00,52.3,52.3,30.37,SE,135,2.0,4.0,0,0.00,,,0.00,meteohub,2013-05-05 05:31:00,
2013-05-05 01:33:00,52.2,52.2,30.37,East,90,2.0,4.0,0,0.00,,,0.00,meteohub,2013-05-05 05:33:00,
2013-05-05 01:34:00,52.2,52.2,30.37,East,90,2.0,4.0,0,0.00,,,0.00,meteohub,2013-05-05 05:34:00,
2013-05-05 01:35:00,52.2,52.2,30.37,East,90,8.0,8.0,0,0.00,,,0.00,meteohub,2013-05-05 05:35:00,
2013-05-05 01:36:00,52.2,52.2,30.37,SE,135,5.0,5.0,0,0.00,,,0.00,meteohub,2013-05-05 05:36:00,
2013-05-05 01:38:00,52.3,52.3,30.37,East,90,2.0,4.0,0,0.00,,,0.00,meteohub,2013-05-05 05:38:00,
2013-05-05 01:39:00,52.2,52.2,30.37,East,90,2.0,4.0,0,0.00,,,0.00,meteohub,2013-05-05 05:39:00,
2013-05-05 01:40:00,52.3,52.3,30.37,SE,135,2.0,10.0,0,0.00,,,0.00,meteohub,2013-05-05 05:40:00,
2013-05-05 01:41:00,52.2,52.2,30.36,SE,135,2.0,10.0,0,0.00,,,0.00,meteohub,2013-05-05 05:41:00,
2013-05-05 01:44:00,52.0,52.0,30.37,SE,135,3.0,10.0,0,0.00,,,0.00,meteohub,2013-05-05 05:44:00,
2013-05-05 01:45:00,52.0,52.0,30.36,SE,135,2.0,10.0,0,0.00,,,0.00,meteohub,2013-05-05 05:45:00,
2013-05-05 01:47:00,52.0,52.0,30.37,SE,135,3.0,10.0,0,0.00,,,0.00,meteohub,2013-05-05 05:47:00,
2013-05-05 01:50:00,52.0,52.0,30.36,SE,135,4.0,10.0,0,0.00,,,0.00,meteohub,2013-05-05 05:50:00,
2013-05-05 01:51:00,52.0,52.0,30.36,SE,135,3.0,8.0,0,0.00,,,0.00,meteohub,2013-05-05 05:51:00,
2013-05-05 01:54:00,51.8,51.8,30.36,South,180,4.0,8.0,0,0.00,,,0.00,meteohub,2013-05-05 05:54:00,
2013-05-05 01:55:00,51.8,51.8,30.36,SE,135,4.0,4.0,0,0.00,,,0.00,meteohub,2013-05-05 05:55:00,
2013-05-05 01:56:00,51.8,51.8,30.36,SE,135,2.0,4.0,0,0.00,,,0.00,meteohub,2013-05-05 05:56:00,
2013-05-05 01:57:00,51.8,51.8,30.36,SE,135,3.0,4.0,0,0.00,,,0.00,meteohub,2013-05-05 05:57:00,
2013-05-05 01:58:00,51.8,51.8,30.36,East,90,4.0,4.0,0,0.00,,,0.00,meteohub,2013-05-05 05:58:00,
2013-05-05 02:00:00,51.6,51.6,30.36,South,180,2.0,4.0,0,0.00,,,0.00,meteohub,2013-05-05 06:00:00,
2013-05-05 02:01:00,51.6,51.6,30.36,South,180,2.0,4.0,0,0.00,,,0.00,meteohub,2013-05-05 06:01:00,
2013-05-05 02:02:00,51.6,51.6,30.36,South,180,2.0,4.0,0,0.00,,,0.00,meteohub,2013-05-05 06:02:00,
2013-05-05 02:04:00,51.6,51.6,30.36,South,180,2.0,4.0,0,0.00,,,0.00,meteohub,2013-05-05 06:04:00,
2013-05-05 02:06:00,51.6,51.6,30.36,South,180,2.0,4.0,0,0.00,,,0.00,meteohub,2013-05-05 06:06:00,
2013-05-05 02:07:00,51.4,51.4,30.36,SE,135,3.0,4.0,0,0.00,,,0.00,meteohub,2013-05-05 06:07:00,
2013-05-05 02:08:00,51.4,51.4,30.36,SE,135,3.0,4.0,0,0.00,,,0.00,meteohub,2013-05-05 06:08:00,
2013-05-05 02:09:00,51.4,51.4,30.36,SE,135,3.0,4.0,0,0.00,,,0.00,meteohub,2013-05-05 06:09:00,
2013-05-05 02:12:00,51.4,51.4,30.36,East,90,4.0,4.0,0,0.00,,,0.00,meteohub,2013-05-05 06:12:00,
2013-05-05 02:13:00,51.4,51.4,30.36,East,90,4.0,4.0,0,0.00,,,0.00,meteohub,2013-05-05 06:13:00,
2013-05-05 02:14:00,51.6,51.6,30.35,SE,135,2.0,4.0,0,0.00,,,0.00,meteohub,2013-05-05 06:14:00,
2013-05-05 02:15:00,51.6,51.6,30.35,WSW,248,4.0,4.0,0,0.00,,,0.00,meteohub,2013-05-05 06:15:00,
2013-05-05 02:17:00,51.6,51.6,30.35,SE,135,2.0,4.0,0,0.00,,,0.00,meteohub,2013-05-05 06:17:00,
2013-05-05 02:19:00,51.4,51.4,30.35,East,90,3.0,4.0,0,0.00,,,0.00,meteohub,2013-05-05 06:19:00,
2013-05-05 02:20:00,51.4,51.4,30.35,East,90,2.0,4.0,0,0.00,,,0.00,meteohub,2013-05-05 06:20:00,
2013-05-05 02:21:00,51.4,51.4,30.36,SE,135,2.0,4.0,0,0.00,,,0.00,meteohub,2013-05-05 06:21:00,
2013-05-05 02:22:00,51.4,51.4,30.36,SE,135,2.0,4.0,0,0.00,,,0.00,meteohub,2013-05-05 06:22:00,
2013-05-05 02:24:00,51.3,51.3,30.36,SE,135,3.0,4.0,0,0.00,,,0.00,meteohub,2013-05-05 06:24:00,
2013-05-05 02:26:00,51.3,51.3,30.36,SE,135,2.0,4.0,0,0.00,,,0.00,meteohub,2013-05-05 06:26:00,
2013-05-05 02:28:00,51.1,51.1,30.35,East,90,2.0,4.0,0,0.00,,,0.00,meteohub,2013-05-05 06:28:00,
2013-05-05 02:29:00,51.1,51.1,30.35,SE,135,2.0,4.0,0,0.00,,,0.00,meteohub,2013-05-05 06:29:00,
2013-05-05 02:31:00,50.9,50.9,30.35,East,90,2.0,4.0,0,0.00,,,0.00,meteohub,2013-05-05 06:31:00,
2013-05-05 02:32:00,50.9,50.9,30.35,SE,135,2.0,4.0,0,0.00,,,0.00,meteohub,2013-05-05 06:32:00,
2013-05-05 02:34:00,50.9,50.9,30.35,East,90,3.0,4.0,0,0.00,,,0.00,meteohub,2013-05-05 06:34:00,
2013-05-05 02:35:00,50.9,50.9,30.35,East,90,3.0,3.0,0,0.00,,,0.00,meteohub,2013-05-05 06:35:00,
2013-05-05 02:37:00,50.7,50.7,30.35,East,90,3.0,3.0,0,0.00,,,0.00,meteohub,2013-05-05 06:37:00,
2013-05-05 02:40:00,50.7,50.7,30.35,SE,135,3.0,3.0,0,0.00,,,0.00,meteohub,2013-05-05 06:40:00,
2013-05-05 02:41:00,50.7,50.7,30.35,East,90,3.0,3.0,0,0.00,,,0.00,meteohub,2013-05-05 06:41:00,
2013-05-05 02:42:00,50.7,50.7,30.35,East,90,3.0,3.0,0,0.00,,,0.00,meteohub,2013-05-05 06:42:00,
2013-05-05 02:43:00,50.7,50.7,30.35,East,90,3.0,3.0,0,0.00,,,0.00,meteohub,2013-05-05 06:43:00,
2013-05-05 02:45:00,50.7,50.7,30.35,East,90,3.0,3.0,0,0.00,,,0.00,meteohub,2013-05-05 06:45:00,
2013-05-05 02:46:00,50.5,50.5,30.35,East,90,2.0,3.0,0,0.00,,,0.00,meteohub,2013-05-05 06:46:00,
2013-05-05 02:47:00,50.5,50.5,30.35,East,90,3.0,3.0,0,0.00,,,0.00,meteohub,2013-05-05 06:47:00,
2013-05-05 02:48:00,50.5,50.5,30.35,SE,135,3.0,3.0,0,0.00,,,0.00,meteohub,2013-05-05 06:48:00,
2013-05-05 02:51:00,50.5,50.5,30.35,East,90,3.0,3.0,0,0.00,,,0.00,meteohub,2013-05-05 06:51:00,
2013-05-05 02:52:00,50.5,50.5,30.35,East,90,3.0,3.0,0,0.00,,,0.00,meteohub,2013-05-05 06:52:00,
2013-05-05 02:54:00,50.5,50.5,30.35,SE,135,2.0,3.0,0,0.00,,,0.00,meteohub,2013-05-05 06:54:00,
2013-05-05 02:56:00,50.4,50.4,30.35,SE,135,4.0,4.0,0,0.00,,,0.00,meteohub,2013-05-05 06:56:00,
2013-05-05 02:57:00,50.4,50.4,30.35,SE,135,4.0,4.0,0,0.00,,,0.00,meteohub,2013-05-05 06:57:00,
2013-05-05 02:58:00,50.4,50.4,30.35,SE,135,2.0,4.0,0,0.00,,,0.00,meteohub,2013-05-05 06:58:00,
2013-05-05 02:59:00,50.4,50.4,30.35,SE,135,4.0,4.0,0,0.00,,,0.00,meteohub,2013-05-05 06:59:00,
2013-05-05 03:01:00,50.4,50.4,30.35,East,90,4.0,4.0,0,0.00,,,0.00,meteohub,2013-05-05 07:01:00,
2013-05-05 03:02:00,50.4,50.4,30.35,East,90,4.0,4.0,0,0.00,,,0.00,meteohub,2013-05-05 07:02:00,
2013-05-05 03:03:00,50.4,50.4,30.35,East,90,4.0,4.0,0,0.00,,,0.00,meteohub,2013-05-05 07:03:00,
2013-05-05 03:04:00,50.4,50.4,30.35,East,90,4.0,4.0,0,0.00,,,0.00,meteohub,2013-05-05 07:04:00,
2013-05-05 03:05:00,50.4,50.4,30.35,East,90,4.0,4.0,0,0.00,,,0.00,meteohub,2013-05-05 07:05:00,
2013-05-05 03:08:00,50.2,50.2,30.35,East,90,4.0,4.0,0,0.00,,,0.00,meteohub,2013-05-05 07:08:00,
2013-05-05 03:09:00,50.2,50.2,30.34,SE,135,3.0,4.0,0,0.00,,,0.00,meteohub,2013-05-05 07:09:00,
2013-05-05 03:11:00,50.2,50.2,30.35,East,90,3.0,4.0,0,0.00,,,0.00,meteohub,2013-05-05 07:11:00,
2013-05-05 03:13:00,50.2,50.2,30.35,SE,135,4.0,4.0,0,0.00,,,0.00,meteohub,2013-05-05 07:13:00,
2013-05-05 03:14:00,50.2,50.2,30.35,East,90,3.0,4.0,0,0.00,,,0.00,meteohub,2013-05-05 07:14:00,
2013-05-05 03:16:00,50.0,50.0,30.35,East,90,3.0,4.0,0,0.00,,,0.00,meteohub,2013-05-05 07:16:00,
2013-05-05 03:18:00,50.0,50.0,30.35,East,90,3.0,4.0,0,0.00,,,0.00,meteohub,2013-05-05 07:18:00,
2013-05-05 03:20:00,50.0,50.0,30.35,East,90,4.0,4.0,0,0.00,,,0.00,meteohub,2013-05-05 07:20:00,
2013-05-05 03:21:00,50.0,50.0,30.35,East,90,4.0,4.0,0,0.00,,,0.00,meteohub,2013-05-05 07:21:00,
2013-05-05 03:22:00,50.0,50.0,30.35,East,90,4.0,4.0,0,0.00,,,0.00,meteohub,2013-05-05 07:22:00,
2013-05-05 03:24:00,50.0,50.0,30.35,East,90,3.0,4.0,0,0.00,,,0.00,meteohub,2013-05-05 07:24:00,
2013-05-05 03:25:00,50.0,50.0,30.35,East,90,3.0,4.0,0,0.00,,,0.00,meteohub,2013-05-05 07:25:00,
2013-05-05 03:26:00,50.0,50.0,30.35,East,90,3.0,4.0,0,0.00,,,0.00,meteohub,2013-05-05 07:26:00,
2013-05-05 03:27:00,50.0,50.0,30.35,SE,135,3.0,4.0,0,0.00,,,0.00,meteohub,2013-05-05 07:27:00,
2013-05-05 03:29:00,50.0,50.0,30.35,East,90,3.0,4.0,0,0.00,,,0.00,meteohub,2013-05-05 07:29:00,
2013-05-05 03:31:00,49.8,49.8,30.35,East,90,3.0,4.0,0,0.00,,,0.00,meteohub,2013-05-05 07:31:00,
2013-05-05 03:33:00,49.8,49.8,30.35,East,90,4.0,4.0,0,0.00,,,0.00,meteohub,2013-05-05 07:33:00,
2013-05-05 03:34:00,49.8,49.8,30.35,East,90,3.0,4.0,0,0.00,,,0.00,meteohub,2013-05-05 07:34:00,
2013-05-05 03:36:00,49.8,49.8,30.35,East,90,3.0,4.0,0,0.00,,,0.00,meteohub,2013-05-05 07:36:00,
2013-05-05 03:37:00,49.8,49.8,30.35,East,90,4.0,4.0,0,0.00,,,0.00,meteohub,2013-05-05 07:37:00,
2013-05-05 03:39:00,49.8,49.8,30.35,East,90,3.0,4.0,0,0.00,,,0.00,meteohub,2013-05-05 07:39:00,
2013-05-05 03:40:00,49.8,49.8,30.35,ESE,113,3.0,4.0,0,0.00,,,0.00,meteohub,2013-05-05 07:40:00,
2013-05-05 03:41:00,49.8,49.8,30.35,East,90,2.0,4.0,0,0.00,,,0.00,meteohub,2013-05-05 07:41:00,
2013-05-05 03:43:00,49.8,49.8,30.35,East,90,2.0,4.0,0,0.00,,,0.00,meteohub,2013-05-05 07:43:00,
2013-05-05 03:44:00,49.8,49.8,30.35,East,90,2.0,4.0,0,0.00,,,0.00,meteohub,2013-05-05 07:44:00,
2013-05-05 03:45:00,49.6,49.6,30.35,SE,135,2.0,4.0,0,0.00,,,0.00,meteohub,2013-05-05 07:45:00,
2013-05-05 03:47:00,49.6,49.6,30.35,East,90,2.0,4.0,0,0.00,,,0.00,meteohub,2013-05-05 07:47:00,
2013-05-05 03:48:00,49.6,49.6,30.35,East,90,2.0,4.0,0,0.00,,,0.00,meteohub,2013-05-05 07:48:00,
2013-05-05 03:50:00,49.5,49.5,30.35,SE,135,2.0,4.0,0,0.00,,,0.00,meteohub,2013-05-05 07:50:00,
2013-05-05 03:51:00,49.5,49.5,30.35,East,90,2.0,4.0,0,0.00,,,0.00,meteohub,2013-05-05 07:51:00,
2013-05-05 03:53:00,49.3,49.3,30.35,East,90,2.0,4.0,0,0.00,,,0.00,meteohub,2013-05-05 07:53:00,
2013-05-05 03:55:00,49.1,49.1,30.35,East,90,2.0,3.0,0,0.00,,,0.00,meteohub,2013-05-05 07:55:00,
2013-05-05 03:56:00,49.1,49.1,30.36,East,90,2.0,3.0,0,0.00,,,0.00,meteohub,2013-05-05 07:56:00,
2013-05-05 03:58:00,48.9,48.9,30.35,East,90,2.0,3.0,0,0.00,,,0.00,meteohub,2013-05-05 07:58:00,
2013-05-05 04:00:00,48.9,48.9,30.36,East,90,3.0,3.0,0,0.00,,,0.00,meteohub,2013-05-05 08:00:00,
2013-05-05 04:01:00,48.9,48.9,30.36,East,90,3.0,3.0,0,0.00,,,0.00,meteohub,2013-05-05 08:01:00,
2013-05-05 04:02:00,48.7,48.7,30.35,East,90,2.0,2.0,0,0.00,,,0.00,meteohub,2013-05-05 08:02:00,
2013-05-05 04:04:00,48.7,48.7,30.36,East,90,2.0,2.0,0,0.00,,,0.00,meteohub,2013-05-05 08:04:00,
2013-05-05 04:05:00,48.7,48.7,30.36,East,90,2.0,3.0,0,0.00,,,0.00,meteohub,2013-05-05 08:05:00,
2013-05-05 04:07:00,48.7,48.7,30.36,East,90,2.0,3.0,0,0.00,,,0.00,meteohub,2013-05-05 08:07:00,
2013-05-05 04:10:00,48.6,48.6,30.35,East,90,2.0,3.0,0,0.00,,,0.00,meteohub,2013-05-05 08:10:00,
2013-05-05 04:12:00,48.4,48.4,30.36,East,90,2.0,3.0,0,0.00,,,0.00,meteohub,2013-05-05 08:12:00,
2013-05-05 04:13:00,48.4,48.4,30.36,East,90,1.0,3.0,0,0.00,,,0.00,meteohub,2013-05-05 08:13:00,
2013-05-05 04:16:00,48.2,48.2,30.35,East,90,0.0,3.0,0,0.00,,,0.00,meteohub,2013-05-05 08:16:00,
2013-05-05 04:17:00,48.2,48.2,30.35,East,90,0.0,3.0,0,0.00,,,0.00,meteohub,2013-05-05 08:17:00,
2013-05-05 04:18:00,48.2,48.2,30.35,East,90,0.0,3.0,0,0.00,,,0.00,meteohub,2013-05-05 08:18:00,
2013-05-05 04:19:00,48.2,48.2,30.35,East,90,0.0,3.0,0,0.00,,,0.00,meteohub,2013-05-05 08:19:00,
2013-05-05 04:21:00,48.2,48.2,30.35,East,90,0.0,2.0,0,0.00,,,0.00,meteohub,2013-05-05 08:21:00,
2013-05-05 04:22:00,48.2,48.2,30.36,East,90,0.0,2.0,0,0.00,,,0.00,meteohub,2013-05-05 08:22:00,
2013-05-05 04:23:00,47.7,47.7,30.35,East,90,1.0,2.0,0,0.00,,,0.00,meteohub,2013-05-05 08:23:00,
2013-05-05 04:25:00,47.5,47.5,30.35,East,90,0.0,2.0,0,0.00,,,0.00,meteohub,2013-05-05 08:25:00,
2013-05-05 04:26:00,47.3,47.3,30.35,East,90,0.0,2.0,0,0.00,,,0.00,meteohub,2013-05-05 08:26:00,
2013-05-05 04:27:00,47.3,47.3,30.35,East,90,0.0,2.0,0,0.00,,,0.00,meteohub,2013-05-05 08:27:00,
2013-05-05 04:29:00,47.3,47.3,30.35,East,90,0.0,2.0,0,0.00,,,0.00,meteohub,2013-05-05 08:29:00,
2013-05-05 04:30:00,47.3,47.3,30.35,East,90,0.0,1.0,0,0.00,,,0.00,meteohub,2013-05-05 08:30:00,
2013-05-05 04:31:00,47.1,47.1,30.35,East,90,0.0,1.0,0,0.00,,,0.00,meteohub,2013-05-05 08:31:00,
2013-05-05 04:32:00,47.1,47.1,30.35,East,90,0.0,1.0,0,0.00,,,0.00,meteohub,2013-05-05 08:32:00,
2013-05-05 04:33:00,47.1,47.1,30.35,East,90,0.0,1.0,0,0.00,,,0.00,meteohub,2013-05-05 08:33:00,
2013-05-05 04:35:00,47.1,47.1,30.35,East,90,0.0,1.0,0,0.00,,,0.00,meteohub,2013-05-05 08:35:00,
2013-05-05 04:36:00,47.1,47.1,30.35,East,90,0.0,1.0,0,0.00,,,0.00,meteohub,2013-05-05 08:36:00,
2013-05-05 04:38:00,47.1,47.1,30.35,East,90,0.0,1.0,0,0.00,,,0.00,meteohub,2013-05-05 08:38:00,
2013-05-05 04:39:00,47.1,47.1,30.35,East,90,0.0,1.0,0,0.00,,,0.00,meteohub,2013-05-05 08:39:00,
2013-05-05 04:40:00,47.1,47.1,30.35,East,90,0.0,0.0,0,0.00,,,0.00,meteohub,2013-05-05 08:40:00,
2013-05-05 04:41:00,46.9,46.9,30.35,East,90,0.0,0.0,0,0.00,,,0.00,meteohub,2013-05-05 08:41:00,
2013-05-05 04:42:00,46.9,46.9,30.35,East,90,0.0,0.0,0,0.00,,,0.00,meteohub,2013-05-05 08:42:00,
2013-05-05 04:43:00,46.9,46.9,30.35,East,90,0.0,0.0,0,0.00,,,0.00,meteohub,2013-05-05 08:43:00,
2013-05-05 04:45:00,46.9,46.9,30.35,East,90,1.0,0.0,0,0.00,,,0.00,meteohub,2013-05-05 08:45:00,
2013-05-05 04:46:00,46.9,46.9,30.35,East,90,2.0,0.0,0,0.00,,,0.00,meteohub,2013-05-05 08:46:00,
2013-05-05 04:47:00,46.9,46.9,30.35,East,90,2.0,0.0,0,0.00,,,0.00,meteohub,2013-05-05 08:47:00,
2013-05-05 04:48:00,46.9,46.9,30.35,East,90,2.0,0.0,0,0.00,,,0.00,meteohub,2013-05-05 08:48:00,
2013-05-05 04:50:00,46.9,46.9,30.35,East,90,2.0,2.0,0,0.00,,,0.00,meteohub,2013-05-05 08:50:00,
2013-05-05 04:52:00,46.9,46.9,30.35,East,90,2.0,2.0,0,0.00,,,0.00,meteohub,2013-05-05 08:52:00,
2013-05-05 04:53:00,46.9,46.9,30.35,East,90,2.0,2.0,0,0.00,,,0.00,meteohub,2013-05-05 08:53:00,
2013-05-05 04:55:00,46.9,46.9,30.35,East,90,2.0,2.0,0,0.00,,,0.00,meteohub,2013-05-05 08:55:00,
2013-05-05 04:56:00,46.9,46.9,30.35,East,90,2.0,2.0,0,0.00,,,0.00,meteohub,2013-05-05 08:56:00,
2013-05-05 04:57:00,46.9,46.9,30.35,East,90,2.0,2.0,0,0.00,,,0.00,meteohub,2013-05-05 08:57:00,
2013-05-05 04:59:00,46.9,46.9,30.35,East,90,2.0,2.0,0,0.00,,,0.00,meteohub,2013-05-05 08:59:00,
2013-05-05 05:00:00,46.9,46.9,30.35,East,90,2.0,2.0,0,0.00,,,0.00,meteohub,2013-05-05 09:00:00,
2013-05-05 05:01:00,46.9,46.9,30.35,East,90,2.0,2.0,0,0.00,,,0.00,meteohub,2013-05-05 09:01:00,
2013-05-05 05:04:00,46.9,46.9,30.35,East,90,2.0,2.0,0,0.00,,,0.00,meteohub,2013-05-05 09:04:00,
2013-05-05 05:05:00,46.9,46.9,30.35,East,90,2.0,2.0,0,0.00,,,0.00,meteohub,2013-05-05 09:05:00,
2013-05-05 05:06:00,46.9,46.9,30.35,East,90,2.0,2.0,0,0.00,,,0.00,meteohub,2013-05-05 09:06:00,
2013-05-05 05:09:00,46.6,46.6,30.35,SE,135,0.0,2.0,0,0.00,,,0.00,meteohub,2013-05-05 09:09:00,
2013-05-05 05:11:00,46.6,46.6,30.35,SE,135,0.0,2.0,0,0.00,,,0.00,meteohub,2013-05-05 09:11:00,
2013-05-05 05:12:00,46.4,46.4,30.35,East,90,0.0,2.0,0,0.00,,,0.00,meteohub,2013-05-05 09:12:00,
2013-05-05 05:14:00,46.4,46.4,30.35,East,90,2.0,2.0,0,0.00,,,0.00,meteohub,2013-05-05 09:14:00,
2013-05-05 05:16:00,46.4,46.4,30.35,East,90,2.0,2.0,0,0.00,,,0.00,meteohub,2013-05-05 09:16:00,
2013-05-05 05:17:00,46.4,46.4,30.35,East,90,2.0,2.0,0,0.00,,,0.00,meteohub,2013-05-05 09:17:00,
2013-05-05 05:18:00,46.2,46.2,30.35,East,90,2.0,2.0,0,0.00,,,0.00,meteohub,2013-05-05 09:18:00,
2013-05-05 05:20:00,46.2,46.2,30.35,East,90,2.0,2.0,0,0.00,,,0.00,meteohub,2013-05-05 09:20:00,
2013-05-05 05:21:00,46.0,46.0,30.35,East,90,2.0,2.0,0,0.00,,,0.00,meteohub,2013-05-05 09:21:00,
2013-05-05 05:22:00,46.0,46.0,30.35,East,90,2.0,2.0,0,0.00,,,0.00,meteohub,2013-05-05 09:22:00,
2013-05-05 05:23:00,46.0,46.0,30.35,East,90,2.0,2.0,0,0.00,,,0.00,meteohub,2013-05-05 09:23:00,
2013-05-05 05:25:00,46.0,46.0,30.35,East,90,2.0,2.0,0,0.00,,,0.00,meteohub,2013-05-05 09:25:00,
2013-05-05 05:27:00,46.0,46.0,30.35,East,90,2.0,2.0,0,0.00,,,0.00,meteohub,2013-05-05 09:27:00,
2013-05-05 05:28:00,46.0,46.0,30.35,East,90,2.0,2.0,0,0.00,,,0.00,meteohub,2013-05-05 09:28:00,
2013-05-05 05:31:00,46.0,46.0,30.35,East,90,2.0,2.0,0,0.00,,,0.00,meteohub,2013-05-05 09:31:00,
2013-05-05 05:32:00,45.9,45.9,30.35,East,90,2.0,2.0,0,0.00,,,0.00,meteohub,2013-05-05 09:32:00,
2013-05-05 05:33:00,45.9,45.9,30.35,East,90,2.0,2.0,0,0.00,,,0.00,meteohub,2013-05-05 09:33:00,
2013-05-05 05:34:00,45.9,45.9,30.35,East,90,2.0,2.0,0,0.00,,,0.00,meteohub,2013-05-05 09:34:00,
2013-05-05 05:36:00,45.9,45.9,30.35,East,90,2.0,2.0,0,0.00,,,0.00,meteohub,2013-05-05 09:36:00,
2013-05-05 05:38:00,45.9,45.9,30.35,East,90,2.0,2.0,0,0.00,,,0.00,meteohub,2013-05-05 09:38:00,
2013-05-05 05:40:00,45.7,45.7,30.35,East,90,2.0,2.0,0,0.00,,,0.00,meteohub,2013-05-05 09:40:00,
2013-05-05 05:41:00,45.7,45.7,30.35,East,90,2.0,3.0,0,0.00,,,0.00,meteohub,2013-05-05 09:41:00,
2013-05-05 05:43:00,45.7,45.7,30.35,East,90,2.0,3.0,0,0.00,,,0.00,meteohub,2013-05-05 09:43:00,
2013-05-05 05:44:00,45.7,45.7,30.35,East,90,2.0,3.0,0,0.00,,,0.00,meteohub,2013-05-05 09:44:00,
2013-05-05 05:45:00,45.7,45.7,30.35,SE,135,2.0,3.0,0,0.00,,,0.00,meteohub,2013-05-05 09:45:00,
2013-05-05 05:46:00,45.7,45.7,30.35,East,90,2.0,3.0,0,0.00,,,0.00,meteohub,2013-05-05 09:46:00,
2013-05-05 05:48:00,45.5,45.5,30.35,SE,135,2.0,3.0,0,0.00,,,0.00,meteohub,2013-05-05 09:48:00,
2013-05-05 05:49:00,45.5,45.5,30.35,SE,135,2.0,3.0,0,0.00,,,0.00,meteohub,2013-05-05 09:49:00,
2013-05-05 05:50:00,45.5,45.5,30.35,East,90,2.0,3.0,0,0.00,,,0.00,meteohub,2013-05-05 09:50:00,
2013-05-05 05:52:00,45.3,45.3,30.35,East,90,2.0,3.0,0,0.00,,,0.00,meteohub,2013-05-05 09:52:00,
2013-05-05 05:53:00,45.3,45.3,30.35,East,90,2.0,3.0,0,0.00,,,0.00,meteohub,2013-05-05 09:53:00,
2013-05-05 05:54:00,45.3,45.3,30.35,East,90,2.0,3.0,0,0.00,,,0.00,meteohub,2013-05-05 09:54:00,
2013-05-05 05:56:00,45.3,45.3,30.35,East,90,2.0,2.0,0,0.00,,,0.00,meteohub,2013-05-05 09:56:00,
2013-05-05 05:59:00,45.1,45.1,30.35,East,90,2.0,2.0,0,0.00,,,0.00,meteohub,2013-05-05 09:59:00,
2013-05-05 06:00:00,45.1,45.1,30.35,East,90,2.0,2.0,0,0.00,,,0.00,meteohub,2013-05-05 10:00:00,
2013-05-05 06:01:00,45.1,45.1,30.35,East,90,2.0,2.0,0,0.00,,,0.00,meteohub,2013-05-05 10:01:00,
2013-05-05 06:02:00,45.1,45.1,30.36,East,90,2.0,2.0,0,0.00,,,0.00,meteohub,2013-05-05 10:02:00,
2013-05-05 06:04:00,45.1,45.1,30.36,East,90,2.0,2.0,0,0.00,,,0.00,meteohub,2013-05-05 10:04:00,
2013-05-05 06:06:00,45.1,45.1,30.35,East,90,2.0,3.0,0,0.00,,,0.00,meteohub,2013-05-05 10:06:00,
2013-05-05 06:07:00,45.3,45.3,30.36,East,90,2.0,3.0,0,0.00,,,0.00,meteohub,2013-05-05 10:07:00,
2013-05-05 06:10:00,45.3,45.3,30.36,East,90,2.0,3.0,0,0.00,,,0.00,meteohub,2013-05-05 10:10:00,
2013-05-05 06:12:00,45.3,45.3,30.36,East,90,2.0,3.0,0,0.00,,,0.00,meteohub,2013-05-05 10:12:00,
2013-05-05 06:13:00,45.3,45.3,30.36,SE,135,2.0,3.0,0,0.00,,,0.00,meteohub,2013-05-05 10:13:00,
2013-05-05 06:15:00,45.3,45.3,30.36,SE,135,1.0,2.0,0,0.00,,,0.00,meteohub,2013-05-05 10:15:00,
2013-05-05 06:17:00,45.1,45.1,30.36,East,90,2.0,2.0,0,0.00,,,0.00,meteohub,2013-05-05 10:17:00,
2013-05-05 06:18:00,45.1,45.1,30.36,East,90,2.0,2.0,0,0.00,,,0.00,meteohub,2013-05-05 10:18:00,
2013-05-05 06:21:00,45.1,45.1,30.36,SE,135,2.0,2.0,0,0.00,,,0.00,meteohub,2013-05-05 10:21:00,
2013-05-05 06:23:00,45.1,45.1,30.36,SE,135,2.0,2.0,0,0.00,,,0.00,meteohub,2013-05-05 10:23:00,
2013-05-05 06:24:00,45.1,45.1,30.36,SE,135,2.0,2.0,0,0.00,,,0.00,meteohub,2013-05-05 10:24:00,
2013-05-05 06:26:00,45.0,45.0,30.36,East,90,2.0,2.0,0,0.00,,,0.00,meteohub,2013-05-05 10:26:00,
2013-05-05 06:27:00,45.0,45.0,30.36,East,90,2.0,2.0,0,0.00,,,0.00,meteohub,2013-05-05 10:27:00,
2013-05-05 06:29:00,45.0,45.0,30.36,East,90,2.0,2.0,0,0.00,,,0.00,meteohub,2013-05-05 10:29:00,
2013-05-05 06:30:00,45.0,45.0,30.36,East,90,2.0,2.0,0,0.00,,,0.00,meteohub,2013-05-05 10:30:00,
2013-05-05 06:32:00,44.8,44.8,30.36,SE,135,0.0,2.0,0,0.00,,,0.00,meteohub,2013-05-05 10:32:00,
2013-05-05 06:33:00,44.8,44.8,30.36,SE,135,0.0,2.0,0,0.00,,,0.00,meteohub,2013-05-05 10:33:00,
2013-05-05 06:34:00,44.8,44.8,30.36,SE,135,0.0,2.0,0,0.00,,,0.00,meteohub,2013-05-05 10:34:00,
2013-05-05 06:35:00,44.8,44.8,30.36,East,90,0.0,2.0,0,0.00,,,0.00,meteohub,2013-05-05 10:35:00,
2013-05-05 06:36:00,44.8,44.8,30.36,East,90,0.0,2.0,0,0.00,,,0.00,meteohub,2013-05-05 10:36:00,
2013-05-05 06:37:00,44.8,44.8,30.36,East,90,0.0,2.0,0,0.00,,,0.00,meteohub,2013-05-05 10:37:00,
2013-05-05 06:38:00,44.8,44.8,30.35,East,90,0.0,2.0,0,0.00,,,0.00,meteohub,2013-05-05 10:38:00,
2013-05-05 06:39:00,44.8,44.8,30.36,East,90,0.0,2.0,0,0.00,,,0.00,meteohub,2013-05-05 10:39:00,
2013-05-05 06:40:00,44.8,44.8,30.36,East,90,0.0,2.0,0,0.00,,,0.00,meteohub,2013-05-05 10:40:00,
2013-05-05 06:41:00,44.8,44.8,30.36,East,90,0.0,2.0,0,0.00,,,0.00,meteohub,2013-05-05 10:41:00,
2013-05-05 06:42:00,44.8,44.8,30.36,East,90,0.0,2.0,0,0.00,,,0.00,meteohub,2013-05-05 10:42:00,
2013-05-05 06:43:00,44.8,44.8,30.36,East,90,0.0,2.0,0,0.00,,,0.00,meteohub,2013-05-05 10:43:00,
2013-05-05 06:46:00,44.8,44.8,30.36,East,90,0.0,0.0,0,0.00,,,0.00,meteohub,2013-05-05 10:46:00,
2013-05-05 06:47:00,44.8,44.8,30.36,East,90,3.0,0.0,0,0.00,,,0.00,meteohub,2013-05-05 10:47:00,
2013-05-05 06:49:00,44.8,44.8,30.36,East,90,2.0,0.0,0,0.00,,,0.00,meteohub,2013-05-05 10:49:00,
2013-05-05 06:51:00,45.0,45.0,30.36,East,90,3.0,3.0,0,0.00,,,0.00,meteohub,2013-05-05 10:51:00,
2013-05-05 06:53:00,45.0,45.0,30.36,East,90,2.0,3.0,0,0.00,,,0.00,meteohub,2013-05-05 10:53:00,
2013-05-05 06:54:00,45.0,45.0,30.36,East,90,2.0,3.0,0,0.00,,,0.00,meteohub,2013-05-05 10:54:00,
2013-05-05 06:56:00,45.1,45.1,30.36,SE,135,2.0,3.0,0,0.00,,,0.00,meteohub,2013-05-05 10:56:00,
2013-05-05 06:58:00,45.1,45.1,30.36,East,90,3.0,3.0,0,0.00,,,0.00,meteohub,2013-05-05 10:58:00,
2013-05-05 07:00:00,45.1,45.1,30.36,East,90,4.0,4.0,0,0.00,,,0.00,meteohub,2013-05-05 11:00:00,
2013-05-05 07:02:00,45.5,45.5,30.36,East,90,2.0,3.0,0,0.00,,,0.00,meteohub,2013-05-05 11:02:00,
2013-05-05 07:03:00,45.5,45.5,30.36,East,90,2.0,3.0,0,0.00,,,0.00,meteohub,2013-05-05 11:03:00,
2013-05-05 07:04:00,45.7,45.7,30.36,East,90,2.0,3.0,0,0.00,,,0.00,meteohub,2013-05-05 11:04:00,
2013-05-05 07:06:00,45.9,45.9,30.36,East,90,0.0,4.0,0,0.00,,,0.00,meteohub,2013-05-05 11:06:00,
2013-05-05 07:07:00,46.0,46.0,30.36,East,90,2.0,4.0,0,0.00,,,0.00,meteohub,2013-05-05 11:07:00,
2013-05-05 07:09:00,46.0,46.0,30.36,East,90,2.0,4.0,0,0.00,,,0.00,meteohub,2013-05-05 11:09:00,
2013-05-05 07:10:00,46.2,46.2,30.36,East,90,3.0,4.0,0,0.00,,,0.00,meteohub,2013-05-05 11:10:00,
2013-05-05 07:12:00,46.6,46.6,30.36,East,90,3.0,4.0,0,0.00,,,0.00,meteohub,2013-05-05 11:12:00,
2013-05-05 07:14:00,47.1,47.1,30.36,SE,135,3.0,4.0,0,0.00,,,0.00,meteohub,2013-05-05 11:14:00,
2013-05-05 07:15:00,47.1,47.1,30.36,SE,135,3.0,4.0,0,0.00,,,0.00,meteohub,2013-05-05 11:15:00,
2013-05-05 07:16:00,47.1,47.1,30.36,SE,135,3.0,4.0,0,0.00,,,0.00,meteohub,2013-05-05 11:16:00,
2013-05-05 07:19:00,47.1,47.1,30.36,SE,135,3.0,4.0,0,0.00,,,0.00,meteohub,2013-05-05 11:19:00,
2013-05-05 07:20:00,47.1,47.1,30.36,SE,135,3.0,4.0,0,0.00,,,0.00,meteohub,2013-05-05 11:20:00,
2013-05-05 07:21:00,47.1,47.1,30.36,SE,135,3.0,4.0,0,0.00,,,0.00,meteohub,2013-05-05 11:21:00,
2013-05-05 07:25:00,49.8,49.8,30.37,East,90,2.0,4.0,0,0.00,,,0.00,meteohub,2013-05-05 11:25:00,
2013-05-05 07:26:00,50.0,50.0,30.37,SE,135,3.0,4.0,0,0.00,,,0.00,meteohub,2013-05-05 11:26:00,
2013-05-05 07:27:00,50.0,50.0,30.37,East,90,3.0,4.0,0,0.00,,,0.00,meteohub,2013-05-05 11:27:00,
2013-05-05 07:30:00,50.2,50.2,30.36,South,180,4.0,4.0,0,0.00,,,0.00,meteohub,2013-05-05 11:30:00,
2013-05-05 07:31:00,50.2,50.2,30.37,East,90,4.0,4.0,0,0.00,,,0.00,meteohub,2013-05-05 11:31:00,
2013-05-05 07:32:00,50.4,50.4,30.37,South,180,5.0,5.0,0,0.00,,,0.00,meteohub,2013-05-05 11:32:00,
2013-05-05 07:33:00,50.2,50.2,30.36,SE,135,5.0,5.0,0,0.00,,,0.00,meteohub,2013-05-05 11:33:00,
2013-05-05 07:36:00,50.4,50.4,30.36,SE,135,3.0,5.0,0,0.00,,,0.00,meteohub,2013-05-05 11:36:00,
2013-05-05 07:37:00,50.5,50.5,30.36,SE,135,4.0,5.0,0,0.00,,,0.00,meteohub,2013-05-05 11:37:00,
2013-05-05 07:38:00,50.5,50.5,30.36,SE,135,4.0,5.0,0,0.00,,,0.00,meteohub,2013-05-05 11:38:00,
2013-05-05 07:41:00,50.5,50.5,30.36,SE,135,4.0,5.0,0,0.00,,,0.00,meteohub,2013-05-05 11:41:00,
2013-05-05 07:43:00,50.5,50.5,30.36,East,90,6.0,6.0,0,0.00,,,0.00,meteohub,2013-05-05 11:43:00,
2013-05-05 07:44:00,50.5,50.5,30.36,East,90,4.0,5.0,0,0.00,,,0.00,meteohub,2013-05-05 11:44:00,
2013-05-05 07:45:00,50.7,50.7,30.36,East,90,2.0,5.0,0,0.00,,,0.00,meteohub,2013-05-05 11:45:00,
2013-05-05 07:46:00,50.7,50.7,30.36,SE,135,4.0,7.0,0,0.00,,,0.00,meteohub,2013-05-05 11:46:00,
2013-05-05 07:49:00,50.9,50.9,30.36,SE,135,2.0,7.0,0,0.00,,,0.00,meteohub,2013-05-05 11:49:00,
2013-05-05 07:50:00,51.1,51.1,30.36,SE,135,3.0,7.0,0,0.00,,,0.00,meteohub,2013-05-05 11:50:00,
2013-05-05 07:53:00,51.4,51.4,30.36,SE,135,2.0,7.0,0,0.00,,,0.00,meteohub,2013-05-05 11:53:00,
2013-05-05 07:54:00,51.6,51.6,30.36,North,0,5.0,7.0,0,0.00,,,0.00,meteohub,2013-05-05 11:54:00,
2013-05-05 07:55:00,51.6,51.6,30.36,North,0,5.0,7.0,0,0.00,,,0.00,meteohub,2013-05-05 11:55:00,
2013-05-05 07:56:00,51.6,51.6,30.36,East,90,5.0,6.0,0,0.00,,,0.00,meteohub,2013-05-05 11:56:00,
2013-05-05 07:59:00,51.4,51.4,30.36,East,90,4.0,6.0,0,0.00,,,0.00,meteohub,2013-05-05 11:59:00,
2013-05-05 08:00:00,51.6,51.6,30.36,East,90,2.0,6.0,0,0.00,,,0.00,meteohub,2013-05-05 12:00:00,
2013-05-05 08:01:00,51.6,51.6,30.36,East,90,2.0,5.0,0,0.00,,,0.00,meteohub,2013-05-05 12:01:00,
2013-05-05 08:02:00,51.6,51.6,30.36,East,90,2.0,5.0,0,0.00,,,0.00,meteohub,2013-05-05 12:02:00,
2013-05-05 08:05:00,51.6,51.6,30.35,East,90,2.0,5.0,0,0.00,,,0.00,meteohub,2013-05-05 12:05:00,
2013-05-05 08:06:00,51.6,51.6,30.36,East,90,2.0,5.0,0,0.00,,,0.00,meteohub,2013-05-05 12:06:00,
2013-05-05 08:07:00,51.6,51.6,30.35,East,90,2.0,5.0,0,0.00,,,0.00,meteohub,2013-05-05 12:07:00,
2013-05-05 08:11:00,52.5,52.5,30.36,East,90,4.0,5.0,0,0.00,,,0.00,meteohub,2013-05-05 12:11:00,
2013-05-05 08:12:00,52.5,52.5,30.35,South,180,5.0,5.0,0,0.00,,,0.00,meteohub,2013-05-05 12:12:00,
2013-05-05 08:13:00,52.5,52.5,30.35,SE,135,4.0,5.0,0,0.00,,,0.00,meteohub,2013-05-05 12:13:00,
2013-05-05 08:17:00,52.7,52.7,30.36,NE,45,3.0,5.0,0,0.00,,,0.00,meteohub,2013-05-05 12:17:00,
2013-05-05 08:18:00,52.9,52.9,30.35,North,0,3.0,5.0,0,0.00,,,0.00,meteohub,2013-05-05 12:18:00,
2013-05-05 08:19:00,53.1,53.1,30.35,East,90,4.0,5.0,0,0.00,,,0.00,meteohub,2013-05-05 12:19:00,
2013-05-05 08:22:00,53.1,53.1,30.36,East,90,7.0,7.0,0,0.00,,,0.00,meteohub,2013-05-05 12:22:00,
2013-05-05 08:23:00,53.2,53.2,30.35,SE,135,6.0,6.0,0,0.00,,,0.00,meteohub,2013-05-05 12:23:00,
2013-05-05 08:24:00,53.2,53.2,30.35,East,90,8.0,8.0,0,0.00,,,0.00,meteohub,2013-05-05 12:24:00,
2013-05-05 08:28:00,53.4,53.4,30.35,SE,135,4.0,8.0,0,0.00,,,0.00,meteohub,2013-05-05 12:28:00,
2013-05-05 08:29:00,53.4,53.4,30.35,East,90,5.0,8.0,0,0.00,,,0.00,meteohub,2013-05-05 12:29:00,
2013-05-05 08:30:00,53.6,53.6,30.35,NE,45,8.0,8.0,0,0.00,,,0.00,meteohub,2013-05-05 12:30:00,
2013-05-05 08:34:00,54.0,54.0,30.35,SE,135,15.0,15.0,0,0.00,,,0.00,meteohub,2013-05-05 12:34:00,
2013-05-05 08:35:00,54.0,54.0,30.35,NE,45,7.0,8.0,0,0.00,,,0.00,meteohub,2013-05-05 12:35:00,
2013-05-05 08:37:00,54.0,54.0,30.35,East,90,4.0,8.0,0,0.00,,,0.00,meteohub,2013-05-05 12:37:00,
2013-05-05 08:40:00,54.3,54.3,30.35,SE,135,8.0,15.0,0,0.00,,,0.00,meteohub,2013-05-05 12:40:00,
2013-05-05 08:41:00,54.3,54.3,30.35,SE,135,6.0,15.0,0,0.00,,,0.00,meteohub,2013-05-05 12:41:00,
2013-05-05 08:42:00,54.5,54.5,30.35,East,90,4.0,15.0,0,0.00,,,0.00,meteohub,2013-05-05 12:42:00,
2013-05-05 08:43:00,54.5,54.5,30.35,SE,135,5.0,15.0,0,0.00,,,0.00,meteohub,2013-05-05 12:43:00,
2013-05-05 08:47:00,54.7,54.7,30.35,East,90,8.0,15.0,0,0.00,,,0.00,meteohub,2013-05-05 12:47:00,
2013-05-05 08:48:00,54.7,54.7,30.35,SE,135,6.0,15.0,0,0.00,,,0.00,meteohub,2013-05-05 12:48:00,
2013-05-05 08:49:00,54.7,54.7,30.35,SE,135,6.0,15.0,0,0.00,,,0.00,meteohub,2013-05-05 12:49:00,
2013-05-05 08:52:00,54.7,54.7,30.35,East,90,5.0,9.0,0,0.00,,,0.00,meteohub,2013-05-05 12:52:00,
2013-05-05 08:53:00,54.7,54.7,30.35,WSW,248,6.0,9.0,0,0.00,,,0.00,meteohub,2013-05-05 12:53:00,
2013-05-05 08:54:00,54.7,54.7,30.35,East,90,17.0,17.0,0,0.00,,,0.00,meteohub,2013-05-05 12:54:00,
2013-05-05 08:56:00,54.7,54.7,30.35,East,90,14.0,17.0,0,0.00,,,0.00,meteohub,2013-05-05 12:56:00,
2013-05-05 08:57:00,54.7,54.7,30.35,East,90,8.0,17.0,0,0.00,,,0.00,meteohub,2013-05-05 12:57:00,
2013-05-05 08:59:00,54.9,54.9,30.35,SE,135,8.0,17.0,0,0.00,,,0.00,meteohub,2013-05-05 12:59:00,
2013-05-05 09:02:00,55.2,55.2,30.35,North,0,5.0,17.0,0,0.00,,,0.00,meteohub,2013-05-05 13:02:00,
2013-05-05 09:04:00,55.2,55.2,30.35,East,90,11.0,17.0,0,0.00,,,0.00,meteohub,2013-05-05 13:04:00,
2013-05-05 09:05:00,55.2,55.2,30.35,East,90,9.0,17.0,0,0.00,,,0.00,meteohub,2013-05-05 13:05:00,
2013-05-05 09:08:00,55.6,55.6,30.35,East,90,12.0,17.0,0,0.00,,,0.00,meteohub,2013-05-05 13:08:00,
2013-05-05 09:10:00,55.8,55.8,30.35,East,90,8.0,14.0,0,0.00,,,0.00,meteohub,2013-05-05 13:10:00,
2013-05-05 09:11:00,55.9,55.9,30.35,South,180,5.0,14.0,0,0.00,,,0.00,meteohub,2013-05-05 13:11:00,
2013-05-05 09:15:00,56.5,56.5,30.34,East,90,10.0,12.0,0,0.00,,,0.00,meteohub,2013-05-05 13:15:00,
2013-05-05 09:16:00,56.5,56.5,30.35,East,90,10.0,12.0,0,0.00,,,0.00,meteohub,2013-05-05 13:16:00,
2013-05-05 09:17:00,56.3,56.3,30.35,SE,135,10.0,12.0,0,0.00,,,0.00,meteohub,2013-05-05 13:17:00,
2013-05-05 09:21:00,56.5,56.5,30.35,East,90,8.0,12.0,0,0.00,,,0.00,meteohub,2013-05-05 13:21:00,
2013-05-05 09:22:00,56.7,56.7,30.35,SE,135,7.0,12.0,0,0.00,,,0.00,meteohub,2013-05-05 13:22:00,
2013-05-05 09:24:00,57.0,57.0,30.35,SE,135,6.0,12.0,0,0.00,,,0.00,meteohub,2013-05-05 13:24:00,
2013-05-05 09:26:00,57.4,57.4,30.35,East,90,6.0,12.0,0,0.00,,,0.00,meteohub,2013-05-05 13:26:00,
2013-05-05 09:27:00,57.6,57.6,30.35,NW,315,10.0,12.0,0,0.00,,,0.00,meteohub,2013-05-05 13:27:00,
2013-05-05 09:28:00,57.6,57.6,30.35,NW,315,10.0,12.0,0,0.00,,,0.00,meteohub,2013-05-05 13:28:00,
2013-05-05 09:30:00,57.4,57.4,30.35,South,180,9.0,12.0,0,0.00,,,0.00,meteohub,2013-05-05 13:30:00,
2013-05-05 09:32:00,57.2,57.2,30.35,East,90,11.0,12.0,0,0.00,,,0.00,meteohub,2013-05-05 13:32:00,
2013-05-05 09:33:00,57.2,57.2,30.35,SE,135,8.0,12.0,0,0.00,,,0.00,meteohub,2013-05-05 13:33:00,
2013-05-05 09:34:00,57.2,57.2,30.35,SE,135,8.0,12.0,0,0.00,,,0.00,meteohub,2013-05-05 13:34:00,
2013-05-05 09:37:00,57.7,57.7,30.35,SE,135,6.0,11.0,0,0.00,,,0.00,meteohub,2013-05-05 13:37:00,
2013-05-05 09:38:00,58.1,58.1,30.35,SE,135,7.0,11.0,0,0.00,,,0.00,meteohub,2013-05-05 13:38:00,
2013-05-05 09:39:00,58.3,58.3,30.35,SE,135,10.0,11.0,0,0.00,,,0.00,meteohub,2013-05-05 13:39:00,
2013-05-05 09:43:00,58.3,58.3,30.34,SE,135,12.0,12.0,0,0.00,,,0.00,meteohub,2013-05-05 13:43:00,
2013-05-05 09:44:00,58.3,58.3,30.35,SE,135,7.0,11.0,0,0.00,,,0.00,meteohub,2013-05-05 13:44:00,
2013-05-05 09:48:00,59.0,59.0,30.35,SE,135,4.0,16.0,0,0.00,,,0.00,meteohub,2013-05-05 13:48:00,
2013-05-05 09:49:00,59.2,59.2,30.35,NE,45,13.0,16.0,0,0.00,,,0.00,meteohub,2013-05-05 13:49:00,
2013-05-05 09:50:00,59.4,59.4,30.35,South,180,11.0,16.0,0,0.00,,,0.00,meteohub,2013-05-05 13:50:00,
2013-05-05 09:53:00,59.7,59.7,30.35,East,90,7.0,16.0,0,0.00,,,0.00,meteohub,2013-05-05 13:53:00,
2013-05-05 09:54:00,59.9,59.9,30.35,East,90,11.0,16.0,0,0.00,,,0.00,meteohub,2013-05-05 13:54:00,
2013-05-05 09:55:00,59.9,59.9,30.35,SE,135,8.0,16.0,0,0.00,,,0.00,meteohub,2013-05-05 13:55:00,
2013-05-05 09:57:00,60.3,60.3,30.35,SE,135,4.0,16.0,0,0.00,,,0.00,meteohub,2013-05-05 13:57:00,
2013-05-05 09:58:00,60.6,60.6,30.35,NE,45,6.0,16.0,0,0.00,,,0.00,meteohub,2013-05-05 13:58:00,
2013-05-05 10:00:00,60.8,60.8,30.35,East,90,4.0,13.0,0,0.00,,,0.00,meteohub,2013-05-05 14:00:00,
2013-05-05 10:01:00,60.8,60.8,30.35,East,90,4.0,13.0,0,0.00,,,0.00,meteohub,2013-05-05 14:01:00,
2013-05-05 10:03:00,61.0,61.0,30.35,SE,135,7.0,13.0,0,0.00,,,0.00,meteohub,2013-05-05 14:03:00,
2013-05-05 10:04:00,61.0,61.0,30.35,SE,135,5.0,13.0,0,0.00,,,0.00,meteohub,2013-05-05 14:04:00,
2013-05-05 10:06:00,61.2,61.2,30.34,East,90,8.0,11.0,0,0.00,,,0.00,meteohub,2013-05-05 14:06:00,
2013-05-05 10:07:00,61.2,61.2,30.35,East,90,6.0,11.0,0,0.00,,,0.00,meteohub,2013-05-05 14:07:00,
2013-05-05 10:09:00,61.3,61.3,30.35,East,90,9.0,11.0,0,0.00,,,0.00,meteohub,2013-05-05 14:09:00,
2013-05-05 10:10:00,61.5,61.5,30.35,East,90,6.0,11.0,0,0.00,,,0.00,meteohub,2013-05-05 14:10:00,
2013-05-05 10:11:00,61.5,61.5,30.35,SE,135,14.0,14.0,0,0.00,,,0.00,meteohub,2013-05-05 14:11:00,
2013-05-05 10:12:00,61.3,61.3,30.35,South,180,11.0,11.0,0,0.00,,,0.00,meteohub,2013-05-05 14:12:00,
2013-05-05 10:13:00,61.3,61.3,30.35,East,90,15.0,15.0,0,0.00,,,0.00,meteohub,2013-05-05 14:13:00,
2013-05-05 10:14:00,61.3,61.3,30.35,SE,135,8.0,8.0,0,0.00,,,0.00,meteohub,2013-05-05 14:14:00,
2013-05-05 10:16:00,61.3,61.3,30.35,SE,135,8.0,15.0,0,0.00,,,0.00,meteohub,2013-05-05 14:16:00,
2013-05-05 10:17:00,61.5,61.5,30.34,North,0,7.0,15.0,0,0.00,,,0.00,meteohub,2013-05-05 14:17:00,
2013-05-05 10:18:00,61.7,61.7,30.35,SE,135,6.0,15.0,0,0.00,,,0.00,meteohub,2013-05-05 14:18:00,
2013-05-05 10:19:00,61.9,61.9,30.35,East,90,7.0,15.0,0,0.00,,,0.00,meteohub,2013-05-05 14:19:00,
2013-05-05 10:20:00,62.1,62.1,30.35,NE,45,6.0,15.0,0,0.00,,,0.00,meteohub,2013-05-05 14:20:00,
2013-05-05 10:21:00,62.2,62.2,30.35,SE,135,6.0,15.0,0,0.00,,,0.00,meteohub,2013-05-05 14:21:00,
2013-05-05 10:22:00,62.2,62.2,30.35,SE,135,6.0,15.0,0,0.00,,,0.00,meteohub,2013-05-05 14:22:00,
2013-05-05 10:24:00,62.6,62.6,30.35,East,90,4.0,15.0,0,0.00,,,0.00,meteohub,2013-05-05 14:24:00,
2013-05-05 10:26:00,63.0,63.0,30.35,East,90,5.0,15.0,0,0.00,,,0.00,meteohub,2013-05-05 14:26:00,
2013-05-05 10:27:00,63.3,63.3,30.35,East,90,4.0,15.0,0,0.00,,,0.00,meteohub,2013-05-05 14:27:00,
2013-05-05 10:29:00,63.5,63.5,30.35,South,180,4.0,15.0,0,0.00,,,0.00,meteohub,2013-05-05 14:29:00,
2013-05-05 10:30:00,63.5,63.5,30.35,SE,135,5.0,8.0,0,0.00,,,0.00,meteohub,2013-05-05 14:30:00,
2013-05-05 10:31:00,63.7,63.7,30.35,East,90,6.0,8.0,0,0.00,,,0.00,meteohub,2013-05-05 14:31:00,
2013-05-05 10:32:00,63.5,63.5,30.35,East,90,9.0,9.0,0,0.00,,,0.00,meteohub,2013-05-05 14:32:00,
2013-05-05 10:34:00,63.0,63.0,30.35,SE,135,10.0,10.0,0,0.00,,,0.00,meteohub,2013-05-05 14:34:00,
2013-05-05 10:36:00,63.0,63.0,30.35,East,90,8.0,9.0,0,0.00,,,0.00,meteohub,2013-05-05 14:36:00,
2013-05-05 10:37:00,63.0,63.0,30.35,SE,135,9.0,9.0,0,0.00,,,0.00,meteohub,2013-05-05 14:37:00,
2013-05-05 10:38:00,62.8,62.8,30.35,SE,135,10.0,10.0,0,0.00,,,0.00,meteohub,2013-05-05 14:38:00,
2013-05-05 10:39:00,62.4,62.4,30.35,East,90,11.0,11.0,0,0.00,,,0.00,meteohub,2013-05-05 14:39:00,
2013-05-05 10:42:00,61.9,61.9,30.35,East,90,8.0,10.0,0,0.00,,,0.00,meteohub,2013-05-05 14:42:00,
2013-05-05 10:43:00,61.7,61.7,30.35,NE,45,10.0,10.0,0,0.00,,,0.00,meteohub,2013-05-05 14:43:00,
2013-05-05 10:44:00,61.3,61.3,30.35,East,90,10.0,10.0,0,0.00,,,0.00,meteohub,2013-05-05 14:44:00,
2013-05-05 10:47:00,61.5,61.5,30.35,SE,135,8.0,12.0,0,0.00,,,0.00,meteohub,2013-05-05 14:47:00,
2013-05-05 10:48:00,61.3,61.3,30.35,SE,135,11.0,12.0,0,0.00,,,0.00,meteohub,2013-05-05 14:48:00,
2013-05-05 10:49:00,61.3,61.3,30.35,East,90,8.0,12.0,0,0.00,,,0.00,meteohub,2013-05-05 14:49:00,
2013-05-05 10:50:00,61.5,61.5,30.35,East,90,9.0,12.0,0,0.00,,,0.00,meteohub,2013-05-05 14:50:00,
2013-05-05 10:52:00,61.7,61.7,30.35,North,0,13.0,13.0,0,0.00,,,0.00,meteohub,2013-05-05 14:52:00,
2013-05-05 10:53:00,61.9,61.9,30.35,South,180,11.0,12.0,0,0.00,,,0.00,meteohub,2013-05-05 14:53:00,
2013-05-05 10:54:00,61.9,61.9,30.35,SE,135,12.0,12.0,0,0.00,,,0.00,meteohub,2013-05-05 14:54:00,
2013-05-05 10:55:00,61.9,61.9,30.35,SE,135,12.0,12.0,0,0.00,,,0.00,meteohub,2013-05-05 14:55:00,
2013-05-05 10:58:00,62.2,62.2,30.35,East,90,8.0,13.0,0,0.00,,,0.00,meteohub,2013-05-05 14:58:00,
2013-05-05 10:59:00,62.4,62.4,30.35,SE,135,9.0,13.0,0,0.00,,,0.00,meteohub,2013-05-05 14:59:00,
2013-05-05 11:00:00,62.4,62.4,30.35,East,90,11.0,16.0,0,0.00,,,0.00,meteohub,2013-05-05 15:00:00,
2013-05-05 11:03:00,62.4,62.4,30.35,SE,135,8.0,16.0,0,0.00,,,0.00,meteohub,2013-05-05 15:03:00,
2013-05-05 11:04:00,62.4,62.4,30.35,East,90,8.0,16.0,0,0.00,,,0.00,meteohub,2013-05-05 15:04:00,
2013-05-05 11:05:00,62.4,62.4,30.35,East,90,11.0,16.0,0,0.00,,,0.00,meteohub,2013-05-05 15:05:00,
2013-05-05 11:06:00,62.4,62.4,30.35,East,90,11.0,16.0,0,0.00,,,0.00,meteohub,2013-05-05 15:06:00,
2013-05-05 11:08:00,63.3,63.3,30.35,East,90,11.0,16.0,0,0.00,,,0.00,meteohub,2013-05-05 15:08:00,
2013-05-05 11:09:00,63.3,63.3,30.35,East,90,15.0,16.0,0,0.00,,,0.00,meteohub,2013-05-05 15:09:00,
2013-05-05 11:11:00,63.3,63.3,30.35,East,90,15.0,16.0,0,0.00,,,0.00,meteohub,2013-05-05 15:11:00,
2013-05-05 11:14:00,63.1,63.1,30.35,SE,135,7.0,16.0,0,0.00,,,0.00,meteohub,2013-05-05 15:14:00,
2013-05-05 11:15:00,63.3,63.3,30.35,South,180,7.0,15.0,0,0.00,,,0.00,meteohub,2013-05-05 15:15:00,
2013-05-05 11:16:00,63.3,63.3,30.35,South,180,7.0,15.0,0,0.00,,,0.00,meteohub,2013-05-05 15:16:00,
2013-05-05 11:17:00,64.0,64.0,30.35,SE,135,6.0,15.0,0,0.00,,,0.00,meteohub,2013-05-05 15:17:00,
2013-05-05 11:19:00,64.4,64.4,30.35,NE,45,9.0,15.0,0,0.00,,,0.00,meteohub,2013-05-05 15:19:00,
2013-05-05 11:20:00,64.4,64.4,30.35,SE,135,6.0,15.0,0,0.00,,,0.00,meteohub,2013-05-05 15:20:00,
2013-05-05 11:22:00,64.2,64.2,30.35,East,90,8.0,15.0,0,0.00,,,0.00,meteohub,2013-05-05 15:22:00,
2013-05-05 11:23:00,64.2,64.2,30.35,NE,45,8.0,15.0,0,0.00,,,0.00,meteohub,2013-05-05 15:23:00,
2013-05-05 11:24:00,64.2,64.2,30.35,WSW,248,9.0,15.0,0,0.00,,,0.00,meteohub,2013-05-05 15:24:00,
2013-05-05 11:25:00,64.2,64.2,30.35,East,90,5.0,15.0,0,0.00,,,0.00,meteohub,2013-05-05 15:25:00,
2013-05-05 11:28:00,64.6,64.6,30.35,SE,135,10.0,15.0,0,0.00,,,0.00,meteohub,2013-05-05 15:28:00,
2013-05-05 11:29:00,64.6,64.6,30.35,NE,45,4.0,15.0,0,0.00,,,0.00,meteohub,2013-05-05 15:29:00,
2013-05-05 11:31:00,64.6,64.6,30.35,NE,45,4.0,11.0,0,0.00,,,0.00,meteohub,2013-05-05 15:31:00,
2013-05-05 11:33:00,65.5,65.5,30.35,South,180,5.0,11.0,0,0.00,,,0.00,meteohub,2013-05-05 15:33:00,
2013-05-05 11:34:00,65.7,65.7,30.35,SE,135,6.0,11.0,0,0.00,,,0.00,meteohub,2013-05-05 15:34:00,
2013-05-05 11:35:00,65.7,65.7,30.35,East,90,8.0,10.0,0,0.00,,,0.00,meteohub,2013-05-05 15:35:00,
2013-05-05 11:36:00,65.7,65.7,30.35,East,90,7.0,10.0,0,0.00,,,0.00,meteohub,2013-05-05 15:36:00,
2013-05-05 11:37:00,65.7,65.7,30.35,South,180,6.0,10.0,0,0.00,,,0.00,meteohub,2013-05-05 15:37:00,
2013-05-05 11:40:00,66.2,66.2,30.35,SE,135,8.0,10.0,0,0.00,,,0.00,meteohub,2013-05-05 15:40:00,
2013-05-05 11:41:00,66.0,66.0,30.35,NE,45,8.0,10.0,0,0.00,,,0.00,meteohub,2013-05-05 15:41:00,
2013-05-05 11:42:00,66.0,66.0,30.35,NE,45,8.0,10.0,0,0.00,,,0.00,meteohub,2013-05-05 15:42:00,
2013-05-05 11:43:00,65.8,65.8,30.34,SE,135,12.0,12.0,0,0.00,,,0.00,meteohub,2013-05-05 15:43:00,
2013-05-05 11:45:00,65.7,65.7,30.35,East,90,5.0,12.0,0,0.00,,,0.00,meteohub,2013-05-05 15:45:00,
2013-05-05 11:47:00,65.7,65.7,30.35,East,90,5.0,12.0,0,0.00,,,0.00,meteohub,2013-05-05 15:47:00,
2013-05-05 11:48:00,66.0,66.0,30.35,SE,135,7.0,12.0,0,0.00,,,0.00,meteohub,2013-05-05 15:48:00,
2013-05-05 11:51:00,66.4,66.4,30.35,NE,45,7.0,12.0,0,0.00,,,0.00,meteohub,2013-05-05 15:51:00,
2013-05-05 11:52:00,66.6,66.6,30.35,South,180,7.0,12.0,0,0.00,,,0.00,meteohub,2013-05-05 15:52:00,
2013-05-05 11:54:00,66.7,66.7,30.35,SE,135,7.0,12.0,0,0.00,,,0.00,meteohub,2013-05-05 15:54:00,
2013-05-05 11:56:00,66.7,66.7,30.35,East,90,8.0,12.0,0,0.00,,,0.00,meteohub,2013-05-05 15:56:00,
2013-05-05 11:57:00,66.6,66.6,30.35,SE,135,8.0,12.0,0,0.00,,,0.00,meteohub,2013-05-05 15:57:00,
2013-05-05 11:58:00,66.4,66.4,30.35,SE,135,7.0,12.0,0,0.00,,,0.00,meteohub,2013-05-05 15:58:00,
2013-05-05 11:59:00,66.4,66.4,30.35,East,90,5.0,12.0,0,0.00,,,0.00,meteohub,2013-05-05 15:59:00,
2013-05-05 12:01:00,66.4,66.4,30.35,SE,135,7.0,12.0,0,0.00,,,0.00,meteohub,2013-05-05 16:01:00,
2013-05-05 12:02:00,66.4,66.4,30.34,SE,135,7.0,12.0,0,0.00,,,0.00,meteohub,2013-05-05 16:02:00,
2013-05-05 12:03:00,66.4,66.4,30.34,SE,135,7.0,12.0,0,0.00,,,0.00,meteohub,2013-05-05 16:03:00,
2013-05-05 12:04:00,66.4,66.4,30.34,SE,135,7.0,12.0,0,0.00,,,0.00,meteohub,2013-05-05 16:04:00,
2013-05-05 12:07:00,66.7,66.7,30.34,NW,315,6.0,9.0,0,0.00,,,0.00,meteohub,2013-05-05 16:07:00,
2013-05-05 12:08:00,66.7,66.7,30.34,East,90,4.0,9.0,0,0.00,,,0.00,meteohub,2013-05-05 16:08:00,
2013-05-05 12:09:00,66.9,66.9,30.35,SE,135,4.0,9.0,0,0.00,,,0.00,meteohub,2013-05-05 16:09:00,
2013-05-05 12:10:00,67.1,67.1,30.34,NE,45,4.0,9.0,0,0.00,,,0.00,meteohub,2013-05-05 16:10:00,
2013-05-05 12:13:00,66.9,66.9,30.34,NE,45,7.0,9.0,0,0.00,,,0.00,meteohub,2013-05-05 16:13:00,
2013-05-05 12:14:00,66.9,66.9,30.34,NE,45,11.0,11.0,0,0.00,,,0.00,meteohub,2013-05-05 16:14:00,
2013-05-05 12:15:00,66.7,66.7,30.34,North,0,12.0,18.0,0,0.00,,,0.00,meteohub,2013-05-05 16:15:00,
2013-05-05 12:16:00,66.7,66.7,30.34,SE,135,9.0,18.0,0,0.00,,,0.00,meteohub,2013-05-05 16:16:00,
2013-05-05 12:19:00,66.6,66.6,30.34,East,90,8.0,18.0,0,0.00,,,0.00,meteohub,2013-05-05 16:19:00,
2013-05-05 12:20:00,66.6,66.6,30.34,East,90,8.0,18.0,0,0.00,,,0.00,meteohub,2013-05-05 16:20:00,
2013-05-05 12:21:00,66.7,66.7,30.34,East,90,9.0,18.0,0,0.00,,,0.00,meteohub,2013-05-05 16:21:00,
2013-05-05 12:25:00,66.6,66.6,30.34,East,90,8.0,18.0,0,0.00,,,0.00,meteohub,2013-05-05 16:25:00,
2013-05-05 12:27:00,66.4,66.4,30.34,East,90,10.0,18.0,0,0.00,,,0.00,meteohub,2013-05-05 16:27:00,
2013-05-05 12:28:00,66.6,66.6,30.33,South,180,12.0,18.0,0,0.00,,,0.00,meteohub,2013-05-05 16:28:00,
2013-05-05 12:30:00,66.6,66.6,30.33,SE,135,8.0,15.0,0,0.00,,,0.00,meteohub,2013-05-05 16:30:00,
2013-05-05 12:32:00,66.2,66.2,30.33,East,90,9.0,15.0,0,0.00,,,0.00,meteohub,2013-05-05 16:32:00,
2013-05-05 12:33:00,66.2,66.2,30.33,NE,45,8.0,15.0,0,0.00,,,0.00,meteohub,2013-05-05 16:33:00,
2013-05-05 12:34:00,66.2,66.2,30.33,NE,45,8.0,15.0,0,0.00,,,0.00,meteohub,2013-05-05 16:34:00,
2013-05-05 12:35:00,66.2,66.2,30.33,East,90,7.0,13.0,0,0.00,,,0.00,meteohub,2013-05-05 16:35:00,
2013-05-05 12:37:00,66.4,66.4,30.34,East,90,8.0,13.0,0,0.00,,,0.00,meteohub,2013-05-05 16:37:00,
2013-05-05 12:38:00,66.6,66.6,30.33,South,180,4.0,13.0,0,0.00,,,0.00,meteohub,2013-05-05 16:38:00,
2013-05-05 12:39:00,66.7,66.7,30.33,SE,135,7.0,13.0,0,0.00,,,0.00,meteohub,2013-05-05 16:39:00,
2013-05-05 12:40:00,66.9,66.9,30.33,SE,135,8.0,13.0,0,0.00,,,0.00,meteohub,2013-05-05 16:40:00,
2013-05-05 12:41:00,67.1,67.1,30.34,SE,135,8.0,13.0,0,0.00,,,0.00,meteohub,2013-05-05 16:41:00,
2013-05-05 12:42:00,67.3,67.3,30.33,SE,135,7.0,13.0,0,0.00,,,0.00,meteohub,2013-05-05 16:42:00,
2013-05-05 12:43:00,67.5,67.5,30.33,SE,135,8.0,13.0,0,0.00,,,0.00,meteohub,2013-05-05 16:43:00,
2013-05-05 12:44:00,67.5,67.5,30.33,East,90,8.0,13.0,0,0.00,,,0.00,meteohub,2013-05-05 16:44:00,
2013-05-05 12:46:00,67.5,67.5,30.33,East,90,11.0,13.0,0,0.00,,,0.00,meteohub,2013-05-05 16:46:00,
2013-05-05 12:47:00,67.5,67.5,30.33,East,90,11.0,13.0,0,0.00,,,0.00,meteohub,2013-05-05 16:47:00,
2013-05-05 12:50:00,67.5,67.5,30.33,SE,135,12.0,13.0,0,0.00,,,0.00,meteohub,2013-05-05 16:50:00,
2013-05-05 12:51:00,67.5,67.5,30.33,East,90,5.0,12.0,0,0.00,,,0.00,meteohub,2013-05-05 16:51:00,
2013-05-05 12:52:00,67.5,67.5,30.33,NE,45,7.0,12.0,0,0.00,,,0.00,meteohub,2013-05-05 16:52:00,
2013-05-05 12:53:00,67.5,67.5,30.33,NE,45,7.0,12.0,0,0.00,,,0.00,meteohub,2013-05-05 16:53:00,
2013-05-05 12:55:00,67.3,67.3,30.33,East,90,8.0,12.0,0,0.00,,,0.00,meteohub,2013-05-05 16:55:00,
2013-05-05 12:56:00,67.1,67.1,30.33,East,90,8.0,12.0,0,0.00,,,0.00,meteohub,2013-05-05 16:56:00,
2013-05-05 12:58:00,67.3,67.3,30.33,South,180,8.0,12.0,0,0.00,,,0.00,meteohub,2013-05-05 16:58:00,
2013-05-05 12:59:00,67.3,67.3,30.33,South,180,8.0,12.0,0,0.00,,,0.00,meteohub,2013-05-05 16:59:00,
2013-05-05 13:00:00,67.3,67.3,30.33,East,90,8.0,12.0,0,0.00,,,0.00,meteohub,2013-05-05 17:00:00,
2013-05-05 13:02:00,67.3,67.3,30.33,East,90,8.0,12.0,0,0.00,,,0.00,meteohub,2013-05-05 17:02:00,
2013-05-05 13:03:00,67.3,67.3,30.33,East,90,8.0,12.0,0,0.00,,,0.00,meteohub,2013-05-05 17:03:00,
2013-05-05 13:04:00,67.3,67.3,30.33,East,90,8.0,12.0,0,0.00,,,0.00,meteohub,2013-05-05 17:04:00,
2013-05-05 13:06:00,67.3,67.3,30.33,East,90,8.0,11.0,0,0.00,,,0.00,meteohub,2013-05-05 17:06:00,
2013-05-05 13:07:00,68.2,68.2,30.32,SE,135,8.0,11.0,0,0.00,,,0.00,meteohub,2013-05-05 17:07:00,
2013-05-05 13:08:00,68.5,68.5,30.33,East,90,6.0,11.0,0,0.00,,,0.00,meteohub,2013-05-05 17:08:00,
2013-05-05 13:10:00,68.7,68.7,30.32,NE,45,8.0,11.0,0,0.00,,,0.00,meteohub,2013-05-05 17:10:00,
2013-05-05 13:11:00,68.7,68.7,30.32,NE,45,8.0,11.0,0,0.00,,,0.00,meteohub,2013-05-05 17:11:00,
2013-05-05 13:13:00,68.5,68.5,30.33,South,180,5.0,11.0,0,0.00,,,0.00,meteohub,2013-05-05 17:13:00,
2013-05-05 13:14:00,68.7,68.7,30.33,East,90,4.0,11.0,0,0.00,,,0.00,meteohub,2013-05-05 17:14:00,
2013-05-05 13:16:00,68.7,68.7,30.33,South,180,8.0,8.0,0,0.00,,,0.00,meteohub,2013-05-05 17:16:00,
2013-05-05 13:18:00,69.1,69.1,30.32,NE,45,3.0,8.0,0,0.00,,,0.00,meteohub,2013-05-05 17:18:00,
2013-05-05 13:19:00,69.4,69.4,30.32,East,90,4.0,8.0,0,0.00,,,0.00,meteohub,2013-05-05 17:19:00,
2013-05-05 13:21:00,69.6,69.6,30.33,South,180,5.0,8.0,0,0.00,,,0.00,meteohub,2013-05-05 17:21:00,
2013-05-05 13:24:00,69.3,69.3,30.33,East,90,8.0,8.0,0,0.00,,,0.00,meteohub,2013-05-05 17:24:00,
2013-05-05 13:25:00,69.1,69.1,30.33,East,90,8.0,9.0,0,0.00,,,0.00,meteohub,2013-05-05 17:25:00,
2013-05-05 13:26:00,68.7,68.7,30.32,NE,45,14.0,14.0,0,0.00,,,0.00,meteohub,2013-05-05 17:26:00,
2013-05-05 13:27:00,68.5,68.5,30.33,SE,135,9.0,9.0,0,0.00,,,0.00,meteohub,2013-05-05 17:27:00,
2013-05-05 13:29:00,68.5,68.5,30.33,SE,135,11.0,11.0,0,0.00,,,0.00,meteohub,2013-05-05 17:29:00,
2013-05-05 13:30:00,68.5,68.5,30.33,SE,135,7.0,14.0,0,0.00,,,0.00,meteohub,2013-05-05 17:30:00,
2013-05-05 13:31:00,68.5,68.5,30.33,SE,135,7.0,14.0,0,0.00,,,0.00,meteohub,2013-05-05 17:31:00,
2013-05-05 13:32:00,68.5,68.5,30.33,South,180,5.0,14.0,0,0.00,,,0.00,meteohub,2013-05-05 17:32:00,
2013-05-05 13:33:00,68.5,68.5,30.33,North,0,8.0,14.0,0,0.00,,,0.00,meteohub,2013-05-05 17:33:00,
2013-05-05 13:35:00,68.7,68.7,30.33,SE,135,5.0,14.0,0,0.00,,,0.00,meteohub,2013-05-05 17:35:00,
2013-05-05 13:36:00,68.7,68.7,30.33,South,180,8.0,14.0,0,0.00,,,0.00,meteohub,2013-05-05 17:36:00,
2013-05-05 13:37:00,68.7,68.7,30.32,East,90,15.0,15.0,0,0.00,,,0.00,meteohub,2013-05-05 17:37:00,
2013-05-05 13:39:00,68.4,68.4,30.33,East,90,9.0,14.0,0,0.00,,,0.00,meteohub,2013-05-05 17:39:00,
2013-05-05 13:40:00,68.4,68.4,30.32,East,90,9.0,17.0,0,0.00,,,0.00,meteohub,2013-05-05 17:40:00,
2013-05-05 13:41:00,68.0,68.0,30.32,East,90,16.0,17.0,0,0.00,,,0.00,meteohub,2013-05-05 17:41:00,
2013-05-05 13:42:00,68.0,68.0,30.32,East,90,16.0,17.0,0,0.00,,,0.00,meteohub,2013-05-05 17:42:00,
2013-05-05 13:43:00,67.8,67.8,30.32,NE,45,7.0,17.0,0,0.00,,,0.00,meteohub,2013-05-05 17:43:00,
2013-05-05 13:45:00,68.2,68.2,30.32,SE,135,6.0,17.0,0,0.00,,,0.00,meteohub,2013-05-05 17:45:00,
2013-05-05 13:46:00,68.4,68.4,30.32,SE,135,4.0,17.0,0,0.00,,,0.00,meteohub,2013-05-05 17:46:00,
2013-05-05 13:48:00,69.3,69.3,30.32,South,180,7.0,17.0,0,0.00,,,0.00,meteohub,2013-05-05 17:48:00,
2013-05-05 13:50:00,69.6,69.6,30.32,SE,135,6.0,17.0,0,0.00,,,0.00,meteohub,2013-05-05 17:50:00,
2013-05-05 13:51:00,70.0,70.0,30.32,SE,135,5.0,17.0,0,0.00,,,0.00,meteohub,2013-05-05 17:51:00,
2013-05-05 13:52:00,70.0,70.0,30.32,North,0,10.0,17.0,0,0.00,,,0.00,meteohub,2013-05-05 17:52:00,
2013-05-05 13:54:00,70.0,70.0,30.32,South,180,8.0,17.0,0,0.00,,,0.00,meteohub,2013-05-05 17:54:00,
2013-05-05 13:57:00,70.3,70.3,30.32,SE,135,8.0,16.0,0,0.00,,,0.00,meteohub,2013-05-05 17:57:00,
2013-05-05 13:58:00,70.3,70.3,30.32,SE,135,8.0,16.0,0,0.00,,,0.00,meteohub,2013-05-05 17:58:00,
2013-05-05 13:59:00,70.3,70.3,30.32,East,90,8.0,16.0,0,0.00,,,0.00,meteohub,2013-05-05 17:59:00,
2013-05-05 14:02:00,70.2,70.2,30.32,NE,45,13.0,13.0,0,0.00,,,0.00,meteohub,2013-05-05 18:02:00,
2013-05-05 14:04:00,70.2,70.2,30.32,NE,45,13.0,13.0,0,0.00,,,0.00,meteohub,2013-05-05 18:04:00,
2013-05-05 14:05:00,70.2,70.2,30.32,NE,45,13.0,13.0,0,0.00,,,0.00,meteohub,2013-05-05 18:05:00,
2013-05-05 14:09:00,70.3,70.3,30.32,East,90,9.0,13.0,0,0.00,,,0.00,meteohub,2013-05-05 18:09:00,
2013-05-05 14:10:00,70.3,70.3,30.32,NE,45,8.0,14.0,0,0.00,,,0.00,meteohub,2013-05-05 18:10:00,
2013-05-05 14:11:00,70.3,70.3,30.32,SE,135,13.0,14.0,0,0.00,,,0.00,meteohub,2013-05-05 18:11:00,
2013-05-05 14:14:00,70.0,70.0,30.33,NE,45,8.0,14.0,0,0.00,,,0.00,meteohub,2013-05-05 18:14:00,
2013-05-05 14:16:00,70.2,70.2,30.32,East,90,5.0,14.0,0,0.00,,,0.00,meteohub,2013-05-05 18:16:00,
2013-05-05 14:17:00,70.3,70.3,30.32,South,180,7.0,14.0,0,0.00,,,0.00,meteohub,2013-05-05 18:17:00,
2013-05-05 14:21:00,70.9,70.9,30.32,SE,135,11.0,14.0,0,0.00,,,0.00,meteohub,2013-05-05 18:21:00,
2013-05-05 14:22:00,70.9,70.9,30.32,NE,45,8.0,14.0,0,0.00,,,0.00,meteohub,2013-05-05 18:22:00,
2013-05-05 14:27:00,70.3,70.3,30.32,SE,135,8.0,13.0,0,0.00,,,0.00,meteohub,2013-05-05 18:27:00,
2013-05-05 14:28:00,70.3,70.3,30.31,South,180,7.0,13.0,0,0.00,,,0.00,meteohub,2013-05-05 18:28:00,
2013-05-05 14:33:00,70.2,70.2,30.31,East,90,5.0,11.0,0,0.00,,,0.00,meteohub,2013-05-05 18:33:00,
2013-05-05 14:34:00,70.2,70.2,30.31,East,90,5.0,11.0,0,0.00,,,0.00,meteohub,2013-05-05 18:34:00,
2013-05-05 14:35:00,70.3,70.3,30.31,SE,135,4.0,11.0,0,0.00,,,0.00,meteohub,2013-05-05 18:35:00,
2013-05-05 14:39:00,70.3,70.3,30.31,NE,45,6.0,11.0,0,0.00,,,0.00,meteohub,2013-05-05 18:39:00,
2013-05-05 14:40:00,70.3,70.3,30.31,South,180,8.0,11.0,0,0.00,,,0.00,meteohub,2013-05-05 18:40:00,
2013-05-05 14:44:00,71.1,71.1,30.31,WNW,293,8.0,11.0,0,0.00,,,0.00,meteohub,2013-05-05 18:44:00,
2013-05-05 14:45:00,71.1,71.1,30.32,South,180,5.0,11.0,0,0.00,,,0.00,meteohub,2013-05-05 18:45:00,
2013-05-05 14:46:00,71.1,71.1,30.32,South,180,5.0,11.0,0,0.00,,,0.00,meteohub,2013-05-05 18:46:00,
2013-05-05 14:47:00,71.1,71.1,30.31,SE,135,7.0,11.0,0,0.00,,,0.00,meteohub,2013-05-05 18:47:00,
2013-05-05 14:49:00,70.7,70.7,30.31,NW,315,8.0,11.0,0,0.00,,,0.00,meteohub,2013-05-05 18:49:00,
2013-05-05 14:51:00,70.7,70.7,30.31,SE,135,6.0,12.0,0,0.00,,,0.00,meteohub,2013-05-05 18:51:00,
2013-05-05 14:52:00,70.9,70.9,30.31,NE,45,8.0,12.0,0,0.00,,,0.00,meteohub,2013-05-05 18:52:00,
2013-05-05 14:56:00,71.4,71.4,30.31,East,90,11.0,12.0,0,0.00,,,0.00,meteohub,2013-05-05 18:56:00,
2013-05-05 14:57:00,71.4,71.4,30.31,SE,135,8.0,12.0,0,0.00,,,0.00,meteohub,2013-05-05 18:57:00,
2013-05-05 14:59:00,71.2,71.2,30.31,NE,45,14.0,14.0,0,0.00,,,0.00,meteohub,2013-05-05 18:59:00,
2013-05-05 15:01:00,71.1,71.1,30.31,East,90,6.0,11.0,0,0.00,,,0.00,meteohub,2013-05-05 19:01:00,
2013-05-05 15:02:00,71.1,71.1,30.31,East,90,6.0,11.0,0,0.00,,,0.00,meteohub,2013-05-05 19:02:00,
2013-05-05 15:03:00,71.1,71.1,30.31,East,90,6.0,11.0,0,0.00,,,0.00,meteohub,2013-05-05 19:03:00,
2013-05-05 15:04:00,71.1,71.1,30.31,East,90,6.0,11.0,0,0.00,,,0.00,meteohub,2013-05-05 19:04:00,
2013-05-05 15:06:00,71.1,71.1,30.31,East,90,6.0,14.0,0,0.00,,,0.00,meteohub,2013-05-05 19:06:00,
2013-05-05 15:07:00,71.6,71.6,30.31,SE,135,7.0,14.0,0,0.00,,,0.00,meteohub,2013-05-05 19:07:00,
2013-05-05 15:09:00,71.6,71.6,30.31,East,90,4.0,14.0,0,0.00,,,0.00,meteohub,2013-05-05 19:09:00,
2013-05-05 15:10:00,71.6,71.6,30.31,East,90,4.0,14.0,0,0.00,,,0.00,meteohub,2013-05-05 19:10:00,
2013-05-05 15:11:00,71.8,71.8,30.31,SE,135,9.0,14.0,0,0.00,,,0.00,meteohub,2013-05-05 19:11:00,
2013-05-05 15:13:00,71.8,71.8,30.31,East,90,5.0,14.0,0,0.00,,,0.00,meteohub,2013-05-05 19:13:00,
2013-05-05 15:14:00,72.0,72.0,30.31,South,180,7.0,14.0,0,0.00,,,0.00,meteohub,2013-05-05 19:14:00,
2013-05-05 15:15:00,72.1,72.1,30.31,East,90,5.0,9.0,0,0.00,,,0.00,meteohub,2013-05-05 19:15:00,
2013-05-05 15:17:00,72.1,72.1,30.30,East,90,6.0,9.0,0,0.00,,,0.00,meteohub,2013-05-05 19:17:00,
2013-05-05 15:18:00,72.1,72.1,30.30,East,90,10.0,10.0,0,0.00,,,0.00,meteohub,2013-05-05 19:18:00,
2013-05-05 15:19:00,72.1,72.1,30.30,East,90,15.0,15.0,0,0.00,,,0.00,meteohub,2013-05-05 19:19:00,
2013-05-05 15:20:00,71.8,71.8,30.30,North,0,12.0,15.0,0,0.00,,,0.00,meteohub,2013-05-05 19:20:00,
2013-05-05 15:22:00,71.8,71.8,30.30,East,90,11.0,15.0,0,0.00,,,0.00,meteohub,2013-05-05 19:22:00,
2013-05-05 15:23:00,72.0,72.0,30.30,SE,135,9.0,15.0,0,0.00,,,0.00,meteohub,2013-05-05 19:23:00,
2013-05-05 15:25:00,72.0,72.0,30.30,East,90,10.0,15.0,0,0.00,,,0.00,meteohub,2013-05-05 19:25:00,
2013-05-05 15:26:00,72.0,72.0,30.30,East,90,6.0,15.0,0,0.00,,,0.00,meteohub,2013-05-05 19:26:00,
2013-05-05 15:27:00,72.3,72.3,30.30,East,90,6.0,15.0,0,0.00,,,0.00,meteohub,2013-05-05 19:27:00,
2013-05-05 15:30:00,72.3,72.3,30.30,SE,135,8.0,15.0,0,0.00,,,0.00,meteohub,2013-05-05 19:30:00,
2013-05-05 15:31:00,72.3,72.3,30.30,East,90,5.0,15.0,0,0.00,,,0.00,meteohub,2013-05-05 19:31:00,
2013-05-05 15:33:00,72.5,72.5,30.30,East,90,9.0,15.0,0,0.00,,,0.00,meteohub,2013-05-05 19:33:00,
2013-05-05 15:35:00,72.7,72.7,30.30,East,90,7.0,12.0,0,0.00,,,0.00,meteohub,2013-05-05 19:35:00,
2013-05-05 15:36:00,72.7,72.7,30.30,SE,135,8.0,12.0,0,0.00,,,0.00,meteohub,2013-05-05 19:36:00,
2013-05-05 15:38:00,72.7,72.7,30.30,SE,135,4.0,12.0,0,0.00,,,0.00,meteohub,2013-05-05 19:38:00,
2013-05-05 15:40:00,72.9,72.9,30.30,WSW,248,8.0,11.0,0,0.00,,,0.00,meteohub,2013-05-05 19:40:00,
2013-05-05 15:41:00,72.7,72.7,30.30,East,90,8.0,11.0,0,0.00,,,0.00,meteohub,2013-05-05 19:41:00,
2013-05-05 15:42:00,72.7,72.7,30.30,South,180,7.0,11.0,0,0.00,,,0.00,meteohub,2013-05-05 19:42:00,
2013-05-05 15:43:00,72.5,72.5,30.30,East,90,8.0,11.0,0,0.00,,,0.00,meteohub,2013-05-05 19:43:00,
2013-05-05 15:45:00,72.5,72.5,30.30,East,90,8.0,9.0,0,0.00,,,0.00,meteohub,2013-05-05 19:45:00,
2013-05-05 15:47:00,72.5,72.5,30.30,East,90,8.0,9.0,0,0.00,,,0.00,meteohub,2013-05-05 19:47:00,
2013-05-05 15:48:00,72.5,72.5,30.30,East,90,9.0,9.0,0,0.00,,,0.00,meteohub,2013-05-05 19:48:00,
2013-05-05 15:49:00,72.3,72.3,30.30,East,90,9.0,9.0,0,0.00,,,0.00,meteohub,2013-05-05 19:49:00,
2013-05-05 15:51:00,72.0,72.0,30.30,East,90,9.0,9.0,0,0.00,,,0.00,meteohub,2013-05-05 19:51:00,
2013-05-05 15:52:00,71.8,71.8,30.30,East,90,9.0,9.0,0,0.00,,,0.00,meteohub,2013-05-05 19:52:00,
2013-05-05 15:54:00,71.4,71.4,30.30,East,90,8.0,9.0,0,0.00,,,0.00,meteohub,2013-05-05 19:54:00,
2013-05-05 15:56:00,71.4,71.4,30.30,SE,135,8.0,13.0,0,0.00,,,0.00,meteohub,2013-05-05 19:56:00,
2013-05-05 15:57:00,71.4,71.4,30.30,East,90,8.0,13.0,0,0.00,,,0.00,meteohub,2013-05-05 19:57:00,
2013-05-05 16:02:00,71.2,71.2,30.29,SE,135,13.0,13.0,0,0.00,,,0.00,meteohub,2013-05-05 20:02:00,
2013-05-05 16:03:00,71.2,71.2,30.29,SE,135,13.0,13.0,0,0.00,,,0.00,meteohub,2013-05-05 20:03:00,
2013-05-05 16:07:00,71.6,71.6,30.29,SE,135,11.0,17.0,0,0.00,,,0.00,meteohub,2013-05-05 20:07:00,
2013-05-05 16:08:00,71.4,71.4,30.29,East,90,12.0,17.0,0,0.00,,,0.00,meteohub,2013-05-05 20:08:00,
2013-05-05 16:12:00,71.2,71.2,30.29,SE,135,8.0,17.0,0,0.00,,,0.00,meteohub,2013-05-05 20:12:00,
2013-05-05 16:13:00,71.2,71.2,30.29,SE,135,8.0,17.0,0,0.00,,,0.00,meteohub,2013-05-05 20:13:00,
2013-05-05 16:14:00,71.4,71.4,30.29,South,180,8.0,17.0,0,0.00,,,0.00,meteohub,2013-05-05 20:14:00,
2013-05-05 16:17:00,71.6,71.6,30.30,SE,135,15.0,15.0,0,0.00,,,0.00,meteohub,2013-05-05 20:17:00,
2013-05-05 16:18:00,71.4,71.4,30.30,WSW,248,11.0,13.0,0,0.00,,,0.00,meteohub,2013-05-05 20:18:00,
2013-05-05 16:19:00,71.4,71.4,30.30,WSW,248,11.0,13.0,0,0.00,,,0.00,meteohub,2013-05-05 20:19:00,
2013-05-05 16:22:00,71.2,71.2,30.30,SE,135,6.0,13.0,0,0.00,,,0.00,meteohub,2013-05-05 20:22:00,
2013-05-05 16:25:00,71.4,71.4,30.29,SE,135,8.0,15.0,0,0.00,,,0.00,meteohub,2013-05-05 20:25:00,
2013-05-05 16:26:00,71.4,71.4,30.29,East,90,7.0,15.0,0,0.00,,,0.00,meteohub,2013-05-05 20:26:00,
2013-05-05 16:27:00,71.6,71.6,30.29,SE,135,6.0,15.0,0,0.00,,,0.00,meteohub,2013-05-05 20:27:00,
2013-05-05 16:29:00,72.0,72.0,30.29,SE,135,6.0,15.0,0,0.00,,,0.00,meteohub,2013-05-05 20:29:00,
2013-05-05 16:30:00,72.1,72.1,30.29,East,90,8.0,15.0,0,0.00,,,0.00,meteohub,2013-05-05 20:30:00,
2013-05-05 16:31:00,72.1,72.1,30.30,SE,135,7.0,15.0,0,0.00,,,0.00,meteohub,2013-05-05 20:31:00,
2013-05-05 16:32:00,72.1,72.1,30.30,East,90,8.0,15.0,0,0.00,,,0.00,meteohub,2013-05-05 20:32:00,
2013-05-05 16:33:00,72.0,72.0,30.29,SE,135,8.0,15.0,0,0.00,,,0.00,meteohub,2013-05-05 20:33:00,
2013-05-05 16:34:00,71.8,71.8,30.29,East,90,8.0,15.0,0,0.00,,,0.00,meteohub,2013-05-05 20:34:00,
2013-05-05 16:36:00,71.8,71.8,30.29,South,180,6.0,14.0,0,0.00,,,0.00,meteohub,2013-05-05 20:36:00,
2013-05-05 16:37:00,71.8,71.8,30.29,SE,135,6.0,14.0,0,0.00,,,0.00,meteohub,2013-05-05 20:37:00,
2013-05-05 16:38:00,71.8,71.8,30.29,SE,135,8.0,14.0,0,0.00,,,0.00,meteohub,2013-05-05 20:38:00,
2013-05-05 16:39:00,71.8,71.8,30.29,SE,135,8.0,14.0,0,0.00,,,0.00,meteohub,2013-05-05 20:39:00,
2013-05-05 16:40:00,72.0,72.0,30.30,East,90,10.0,10.0,0,0.00,,,0.00,meteohub,2013-05-05 20:40:00,
2013-05-05 16:42:00,72.0,72.0,30.29,WSW,248,8.0,9.0,0,0.00,,,0.00,meteohub,2013-05-05 20:42:00,
2013-05-05 16:44:00,72.5,72.5,30.29,South,180,3.0,9.0,0,0.00,,,0.00,meteohub,2013-05-05 20:44:00,
2013-05-05 16:45:00,72.9,72.9,30.29,NE,45,3.0,10.0,0,0.00,,,0.00,meteohub,2013-05-05 20:45:00,
2013-05-05 16:48:00,73.2,73.2,30.29,SE,135,8.0,10.0,0,0.00,,,0.00,meteohub,2013-05-05 20:48:00,
2013-05-05 16:50:00,72.9,72.9,30.29,East,90,10.0,10.0,0,0.00,,,0.00,meteohub,2013-05-05 20:50:00,
2013-05-05 16:52:00,72.5,72.5,30.29,NE,45,6.0,10.0,0,0.00,,,0.00,meteohub,2013-05-05 20:52:00,
2013-05-05 16:53:00,72.7,72.7,30.29,SE,135,12.0,12.0,0,0.00,,,0.00,meteohub,2013-05-05 20:53:00,
2013-05-05 16:54:00,72.7,72.7,30.29,SE,135,12.0,12.0,0,0.00,,,0.00,meteohub,2013-05-05 20:54:00,
2013-05-05 16:56:00,72.5,72.5,30.29,SE,135,8.0,12.0,0,0.00,,,0.00,meteohub,2013-05-05 20:56:00,
2013-05-05 16:57:00,72.3,72.3,30.29,East,90,5.0,12.0,0,0.00,,,0.00,meteohub,2013-05-05 20:57:00,
2013-05-05 16:58:00,72.5,72.5,30.29,SE,135,4.0,12.0,0,0.00,,,0.00,meteohub,2013-05-05 20:58:00,
2013-05-05 16:59:00,72.7,72.7,30.29,East,90,4.0,12.0,0,0.00,,,0.00,meteohub,2013-05-05 20:59:00,
2013-05-05 17:01:00,72.7,72.7,30.29,East,90,4.0,12.0,0,0.00,,,0.00,meteohub,2013-05-05 21:01:00,
2013-05-05 17:02:00,72.7,72.7,30.29,East,90,4.0,12.0,0,0.00,,,0.00,meteohub,2013-05-05 21:02:00,
2013-05-05 17:05:00,72.7,72.7,30.29,East,90,4.0,12.0,0,0.00,,,0.00,meteohub,2013-05-05 21:05:00,
2013-05-05 17:06:00,72.7,72.7,30.29,East,90,4.0,12.0,0,0.00,,,0.00,meteohub,2013-05-05 21:06:00,
2013-05-05 17:07:00,72.7,72.7,30.29,NE,45,8.0,12.0,0,0.00,,,0.00,meteohub,2013-05-05 21:07:00,
2013-05-05 17:08:00,72.5,72.5,30.29,SE,135,8.0,12.0,0,0.00,,,0.00,meteohub,2013-05-05 21:08:00,
2013-05-05 17:11:00,72.3,72.3,30.28,East,90,7.0,8.0,0,0.00,,,0.00,meteohub,2013-05-05 21:11:00,
2013-05-05 17:12:00,72.1,72.1,30.29,SE,135,7.0,8.0,0,0.00,,,0.00,meteohub,2013-05-05 21:12:00,
2013-05-05 17:14:00,71.8,71.8,30.29,East,90,8.0,8.0,0,0.00,,,0.00,meteohub,2013-05-05 21:14:00,
2013-05-05 17:16:00,71.4,71.4,30.29,East,90,8.0,11.0,0,0.00,,,0.00,meteohub,2013-05-05 21:16:00,
2013-05-05 17:18:00,71.2,71.2,30.29,East,90,7.0,11.0,0,0.00,,,0.00,meteohub,2013-05-05 21:18:00,
2013-05-05 17:20:00,71.4,71.4,30.29,East,90,4.0,11.0,0,0.00,,,0.00,meteohub,2013-05-05 21:20:00,
2013-05-05 17:21:00,71.6,71.6,30.29,East,90,4.0,11.0,0,0.00,,,0.00,meteohub,2013-05-05 21:21:00,
2013-05-05 17:23:00,72.0,72.0,30.29,SE,135,4.0,11.0,0,0.00,,,0.00,meteohub,2013-05-05 21:23:00,
2013-05-05 17:24:00,72.1,72.1,30.29,South,180,5.0,11.0,0,0.00,,,0.00,meteohub,2013-05-05 21:24:00,
2013-05-05 17:26:00,72.0,72.0,30.29,SE,135,4.0,9.0,0,0.00,,,0.00,meteohub,2013-05-05 21:26:00,
2013-05-05 17:27:00,72.0,72.0,30.28,South,180,5.0,9.0,0,0.00,,,0.00,meteohub,2013-05-05 21:27:00,
2013-05-05 17:28:00,72.0,72.0,30.29,SE,135,7.0,9.0,0,0.00,,,0.00,meteohub,2013-05-05 21:28:00,
2013-05-05 17:29:00,72.0,72.0,30.29,SE,135,7.0,9.0,0,0.00,,,0.00,meteohub,2013-05-05 21:29:00,
2013-05-05 17:32:00,71.6,71.6,30.29,SE,135,7.0,9.0,0,0.00,,,0.00,meteohub,2013-05-05 21:32:00,
2013-05-05 17:34:00,71.1,71.1,30.29,East,90,6.0,9.0,0,0.00,,,0.00,meteohub,2013-05-05 21:34:00,
2013-05-05 17:35:00,70.9,70.9,30.29,SSE,158,6.0,11.0,0,0.00,,,0.00,meteohub,2013-05-05 21:35:00,
2013-05-05 17:36:00,70.9,70.9,30.29,NE,45,7.0,11.0,0,0.00,,,0.00,meteohub,2013-05-05 21:36:00,
2013-05-05 17:38:00,70.9,70.9,30.29,SE,135,6.0,11.0,0,0.00,,,0.00,meteohub,2013-05-05 21:38:00,
2013-05-05 17:40:00,71.1,71.1,30.28,SE,135,4.0,11.0,0,0.00,,,0.00,meteohub,2013-05-05 21:40:00,
2013-05-05 17:41:00,71.2,71.2,30.28,SE,135,9.0,11.0,0,0.00,,,0.00,meteohub,2013-05-05 21:41:00,
2013-05-05 17:44:00,71.2,71.2,30.29,East,90,4.0,11.0,0,0.00,,,0.00,meteohub,2013-05-05 21:44:00,
2013-05-05 17:46:00,71.2,71.2,30.29,East,90,6.0,11.0,0,0.00,,,0.00,meteohub,2013-05-05 21:46:00,
2013-05-05 17:47:00,71.2,71.2,30.29,SE,135,8.0,11.0,0,0.00,,,0.00,meteohub,2013-05-05 21:47:00,
2013-05-05 17:49:00,71.1,71.1,30.29,East,90,6.0,11.0,0,0.00,,,0.00,meteohub,2013-05-05 21:49:00,
2013-05-05 17:51:00,70.9,70.9,30.29,SE,135,4.0,9.0,0,0.00,,,0.00,meteohub,2013-05-05 21:51:00,
2013-05-05 17:52:00,71.1,71.1,30.29,East,90,4.0,9.0,0,0.00,,,0.00,meteohub,2013-05-05 21:52:00,
2013-05-05 17:54:00,71.4,71.4,30.29,East,90,4.0,9.0,0,0.00,,,0.00,meteohub,2013-05-05 21:54:00,
2013-05-05 17:56:00,71.4,71.4,30.29,SE,135,8.0,9.0,0,0.00,,,0.00,meteohub,2013-05-05 21:56:00,
2013-05-05 17:57:00,71.4,71.4,30.29,SSE,158,9.0,9.0,0,0.00,,,0.00,meteohub,2013-05-05 21:57:00,
2013-05-05 17:58:00,71.4,71.4,30.29,SE,135,5.0,9.0,0,0.00,,,0.00,meteohub,2013-05-05 21:58:00,
2013-05-05 18:00:00,71.1,71.1,30.29,SE,135,4.0,9.0,0,0.00,,,0.00,meteohub,2013-05-05 22:00:00,
2013-05-05 18:01:00,71.2,71.2,30.29,South,180,5.0,9.0,0,0.00,,,0.00,meteohub,2013-05-05 22:01:00,
2013-05-05 18:02:00,71.2,71.2,30.29,South,180,5.0,9.0,0,0.00,,,0.00,meteohub,2013-05-05 22:02:00,
2013-05-05 18:03:00,71.2,71.2,30.29,East,90,3.0,9.0,0,0.00,,,0.00,meteohub,2013-05-05 22:03:00,
2013-05-05 18:04:00,71.1,71.1,30.29,East,90,4.0,9.0,0,0.00,,,0.00,meteohub,2013-05-05 22:04:00,
2013-05-05 18:05:00,71.1,71.1,30.29,East,90,8.0,9.0,0,0.00,,,0.00,meteohub,2013-05-05 22:05:00,
2013-05-05 18:07:00,70.9,70.9,30.29,SE,135,8.0,9.0,0,0.00,,,0.00,meteohub,2013-05-05 22:07:00,
2013-05-05 18:08:00,70.7,70.7,30.29,SE,135,6.0,9.0,0,0.00,,,0.00,meteohub,2013-05-05 22:08:00,
2013-05-05 18:10:00,70.3,70.3,30.30,East,90,8.0,9.0,0,0.00,,,0.00,meteohub,2013-05-05 22:10:00,
2013-05-05 18:13:00,70.2,70.2,30.29,SE,135,5.0,9.0,0,0.00,,,0.00,meteohub,2013-05-05 22:13:00,
2013-05-05 18:14:00,70.3,70.3,30.29,East,90,4.0,9.0,0,0.00,,,0.00,meteohub,2013-05-05 22:14:00,
2013-05-05 18:15:00,70.3,70.3,30.29,East,90,4.0,9.0,0,0.00,,,0.00,meteohub,2013-05-05 22:15:00,
2013-05-05 18:16:00,70.3,70.3,30.29,East,90,4.0,9.0,0,0.00,,,0.00,meteohub,2013-05-05 22:16:00,
2013-05-05 18:19:00,70.3,70.3,30.29,North,0,5.0,9.0,0,0.00,,,0.00,meteohub,2013-05-05 22:19:00,
2013-05-05 18:20:00,70.3,70.3,30.29,SE,135,4.0,9.0,0,0.00,,,0.00,meteohub,2013-05-05 22:20:00,
2013-05-05 18:21:00,70.3,70.3,30.29,SE,135,4.0,9.0,0,0.00,,,0.00,meteohub,2013-05-05 22:21:00,
2013-05-05 18:23:00,70.3,70.3,30.29,North,0,8.0,9.0,0,0.00,,,0.00,meteohub,2013-05-05 22:23:00,
2013-05-05 18:26:00,70.2,70.2,30.29,North,0,6.0,8.0,0,0.00,,,0.00,meteohub,2013-05-05 22:26:00,
2013-05-05 18:27:00,70.0,70.0,30.29,South,180,7.0,8.0,0,0.00,,,0.00,meteohub,2013-05-05 22:27:00,
2013-05-05 18:28:00,69.8,69.8,30.30,East,90,8.0,8.0,0,0.00,,,0.00,meteohub,2013-05-05 22:28:00,
2013-05-05 18:32:00,69.6,69.6,30.29,NE,45,4.0,8.0,0,0.00,,,0.00,meteohub,2013-05-05 22:32:00,
2013-05-05 18:33:00,69.8,69.8,30.29,East,90,5.0,8.0,0,0.00,,,0.00,meteohub,2013-05-05 22:33:00,
2013-05-05 18:37:00,69.3,69.3,30.29,East,90,9.0,9.0,0,0.00,,,0.00,meteohub,2013-05-05 22:37:00,
2013-05-05 18:38:00,69.1,69.1,30.30,East,90,8.0,9.0,0,0.00,,,0.00,meteohub,2013-05-05 22:38:00,
2013-05-05 18:39:00,69.1,69.1,30.30,East,90,8.0,9.0,0,0.00,,,0.00,meteohub,2013-05-05 22:39:00,
2013-05-05 18:42:00,68.7,68.7,30.29,East,90,5.0,9.0,0,0.00,,,0.00,meteohub,2013-05-05 22:42:00,
2013-05-05 18:43:00,68.5,68.5,30.29,SE,135,6.0,9.0,0,0.00,,,0.00,meteohub,2013-05-05 22:43:00,
2013-05-05 18:44:00,68.5,68.5,30.29,SE,135,7.0,9.0,0,0.00,,,0.00,meteohub,2013-05-05 22:44:00,
2013-05-05 18:45:00,68.5,68.5,30.29,East,90,6.0,9.0,0,0.00,,,0.00,meteohub,2013-05-05 22:45:00,
2013-05-05 18:46:00,68.5,68.5,30.29,East,90,6.0,9.0,0,0.00,,,0.00,meteohub,2013-05-05 22:46:00,
2013-05-05 18:47:00,68.2,68.2,30.29,East,90,7.0,9.0,0,0.00,,,0.00,meteohub,2013-05-05 22:47:00,
2013-05-05 18:49:00,68.0,68.0,30.29,SE,135,6.0,9.0,0,0.00,,,0.00,meteohub,2013-05-05 22:49:00,
2013-05-05 18:50:00,67.6,67.6,30.29,East,90,5.0,9.0,0,0.00,,,0.00,meteohub,2013-05-05 22:50:00,
2013-05-05 18:52:00,67.3,67.3,30.29,East,90,8.0,9.0,0,0.00,,,0.00,meteohub,2013-05-05 22:52:00,
2013-05-05 18:54:00,66.9,66.9,30.29,East,90,7.0,9.0,0,0.00,,,0.00,meteohub,2013-05-05 22:54:00,
2013-05-05 18:55:00,66.7,66.7,30.29,East,90,6.0,9.0,0,0.00,,,0.00,meteohub,2013-05-05 22:55:00,
2013-05-05 18:56:00,66.2,66.2,30.29,SE,135,7.0,9.0,0,0.00,,,0.00,meteohub,2013-05-05 22:56:00,
2013-05-05 18:57:00,66.2,66.2,30.29,SE,135,7.0,9.0,0,0.00,,,0.00,meteohub,2013-05-05 22:57:00,
2013-05-05 19:00:00,65.7,65.7,30.29,SE,135,5.0,9.0,0,0.00,,,0.00,meteohub,2013-05-05 23:00:00,
2013-05-05 19:02:00,65.3,65.3,30.29,East,90,6.0,9.0,0,0.00,,,0.00,meteohub,2013-05-05 23:02:00,
2013-05-05 19:03:00,65.3,65.3,30.29,East,90,6.0,9.0,0,0.00,,,0.00,meteohub,2013-05-05 23:03:00,
2013-05-05 19:05:00,64.9,64.9,30.30,SE,135,5.0,9.0,0,0.00,,,0.00,meteohub,2013-05-05 23:05:00,
2013-05-05 19:06:00,64.8,64.8,30.30,East,90,4.0,9.0,0,0.00,,,0.00,meteohub,2013-05-05 23:06:00,
2013-05-05 19:07:00,64.8,64.8,30.29,South,180,6.0,9.0,0,0.00,,,0.00,meteohub,2013-05-05 23:07:00,
2013-05-05 19:08:00,64.6,64.6,30.29,East,90,6.0,9.0,0,0.00,,,0.00,meteohub,2013-05-05 23:08:00,
2013-05-05 19:11:00,64.2,64.2,30.30,East,90,6.0,8.0,0,0.00,,,0.00,meteohub,2013-05-05 23:11:00,
2013-05-05 19:12:00,64.2,64.2,30.30,East,90,5.0,8.0,0,0.00,,,0.00,meteohub,2013-05-05 23:12:00,
2013-05-05 19:13:00,64.0,64.0,30.30,East,90,7.0,8.0,0,0.00,,,0.00,meteohub,2013-05-05 23:13:00,
2013-05-05 19:14:00,64.0,64.0,30.29,East,90,4.0,8.0,0,0.00,,,0.00,meteohub,2013-05-05 23:14:00,
2013-05-05 19:15:00,63.9,63.9,30.29,South,180,4.0,9.0,0,0.00,,,0.00,meteohub,2013-05-05 23:15:00,
2013-05-05 19:16:00,63.9,63.9,30.29,WSW,248,5.0,9.0,0,0.00,,,0.00,meteohub,2013-05-05 23:16:00,
2013-05-05 19:17:00,63.9,63.9,30.29,WSW,248,5.0,9.0,0,0.00,,,0.00,meteohub,2013-05-05 23:17:00,
2013-05-05 19:18:00,63.7,63.7,30.30,East,90,5.0,9.0,0,0.00,,,0.00,meteohub,2013-05-05 23:18:00,
2013-05-05 19:19:00,63.7,63.7,30.30,East,90,5.0,9.0,0,0.00,,,0.00,meteohub,2013-05-05 23:19:00,
2013-05-05 19:21:00,63.5,63.5,30.30,SE,135,7.0,9.0,0,0.00,,,0.00,meteohub,2013-05-05 23:21:00,
2013-05-05 19:22:00,63.5,63.5,30.30,South,180,5.0,9.0,0,0.00,,,0.00,meteohub,2013-05-05 23:22:00,
2013-05-05 19:23:00,63.3,63.3,30.30,SE,135,5.0,9.0,0,0.00,,,0.00,meteohub,2013-05-05 23:23:00,
2013-05-05 19:24:00,63.3,63.3,30.30,SE,135,5.0,9.0,0,0.00,,,0.00,meteohub,2013-05-05 23:24:00,
2013-05-05 19:27:00,63.1,63.1,30.30,SE,135,4.0,9.0,0,0.00,,,0.00,meteohub,2013-05-05 23:27:00,
2013-05-05 19:28:00,63.0,63.0,30.31,SE,135,3.0,9.0,0,0.00,,,0.00,meteohub,2013-05-05 23:28:00,
2013-05-05 19:29:00,63.0,63.0,30.30,East,90,4.0,9.0,0,0.00,,,0.00,meteohub,2013-05-05 23:29:00,
2013-05-05 19:32:00,63.0,63.0,30.30,East,90,3.0,7.0,0,0.00,,,0.00,meteohub,2013-05-05 23:32:00,
2013-05-05 19:33:00,63.0,63.0,30.30,East,90,3.0,7.0,0,0.00,,,0.00,meteohub,2013-05-05 23:33:00,
2013-05-05 19:34:00,62.6,62.6,30.30,South,180,5.0,7.0,0,0.00,,,0.00,meteohub,2013-05-05 23:34:00,
2013-05-05 19:35:00,62.4,62.4,30.30,East,90,6.0,7.0,0,0.00,,,0.00,meteohub,2013-05-05 23:35:00,
2013-05-05 19:38:00,62.2,62.2,30.30,East,90,4.0,7.0,0,0.00,,,0.00,meteohub,2013-05-05 23:38:00,
2013-05-05 19:39:00,62.2,62.2,30.30,NE,45,4.0,7.0,0,0.00,,,0.00,meteohub,2013-05-05 23:39:00,
2013-05-05 19:41:00,62.1,62.1,30.30,East,90,3.0,6.0,0,0.00,,,0.00,meteohub,2013-05-05 23:41:00,
2013-05-05 19:42:00,62.1,62.1,30.30,East,90,4.0,6.0,0,0.00,,,0.00,meteohub,2013-05-05 23:42:00,
2013-05-05 19:44:00,61.9,61.9,30.30,SE,135,4.0,6.0,0,0.00,,,0.00,meteohub,2013-05-05 23:44:00,
2013-05-05 19:45:00,61.9,61.9,30.30,SE,135,4.0,6.0,0,0.00,,,0.00,meteohub,2013-05-05 23:45:00,
2013-05-05 19:48:00,61.9,61.9,30.31,SE,135,4.0,6.0,0,0.00,,,0.00,meteohub,2013-05-05 23:48:00,
2013-05-05 19:49:00,61.9,61.9,30.30,SE,135,4.0,6.0,0,0.00,,,0.00,meteohub,2013-05-05 23:49:00,
2013-05-05 19:50:00,61.5,61.5,30.30,East,90,4.0,6.0,0,0.00,,,0.00,meteohub,2013-05-05 23:50:00,
2013-05-05 19:54:00,61.2,61.2,30.31,NE,45,4.0,6.0,0,0.00,,,0.00,meteohub,2013-05-05 23:54:00,
2013-05-05 19:55:00,61.2,61.2,30.30,East,90,4.0,7.0,0,0.00,,,0.00,meteohub,2013-05-05 23:55:00,
2013-05-05 19:56:00,61.0,61.0,30.31,NE,45,4.0,7.0,0,0.00,,,0.00,meteohub,2013-05-05 23:56:00,
2013-05-05 19:59:00,60.8,60.8,30.31,East,90,4.0,7.0,0,0.00,,,0.00,meteohub,2013-05-05 23:59:00,
2013-05-05 20:00:00,60.8,60.8,30.31,East,90,4.0,7.0,0,0.00,,,0.00,meteohub,2013-05-06 00:00:00,
2013-05-05 20:01:00,60.6,60.6,30.31,East,90,4.0,7.0,0,0.00,,,0.00,meteohub,2013-05-06 00:01:00,
2013-05-05 20:02:00,60.6,60.6,30.31,East,90,4.0,7.0,0,0.00,,,0.00,meteohub,2013-05-06 00:02:00,
2013-05-05 20:04:00,60.4,60.4,30.31,East,90,4.0,7.0,0,0.00,,,0.00,meteohub,2013-05-06 00:04:00,
2013-05-05 20:05:00,60.4,60.4,30.31,South,180,3.0,4.0,0,0.00,,,0.00,meteohub,2013-05-06 00:05:00,
2013-05-05 20:07:00,60.3,60.3,30.31,East,90,3.0,4.0,0,0.00,,,0.00,meteohub,2013-05-06 00:07:00,
2013-05-05 20:09:00,60.1,60.1,30.31,SE,135,6.0,6.0,0,0.00,,,0.00,meteohub,2013-05-06 00:09:00,
2013-05-05 20:10:00,60.1,60.1,30.31,East,90,5.0,6.0,0,0.00,,,0.00,meteohub,2013-05-06 00:10:00,
2013-05-05 20:11:00,60.1,60.1,30.31,East,90,5.0,6.0,0,0.00,,,0.00,meteohub,2013-05-06 00:11:00,
2013-05-05 20:12:00,60.1,60.1,30.31,East,90,3.0,6.0,0,0.00,,,0.00,meteohub,2013-05-06 00:12:00,
2013-05-05 20:13:00,60.1,60.1,30.31,SE,135,4.0,6.0,0,0.00,,,0.00,meteohub,2013-05-06 00:13:00,
2013-05-05 20:14:00,59.9,59.9,30.31,SE,135,4.0,6.0,0,0.00,,,0.00,meteohub,2013-05-06 00:14:00,
2013-05-05 20:16:00,59.7,59.7,30.31,NW,315,5.0,6.0,0,0.00,,,0.00,meteohub,2013-05-06 00:16:00,
2013-05-05 20:17:00,59.7,59.7,30.31,NW,315,5.0,6.0,0,0.00,,,0.00,meteohub,2013-05-06 00:17:00,
2013-05-05 20:18:00,59.7,59.7,30.32,NW,315,5.0,6.0,0,0.00,,,0.00,meteohub,2013-05-06 00:18:00,
2013-05-05 20:19:00,59.7,59.7,30.31,NW,315,5.0,6.0,0,0.00,,,0.00,meteohub,2013-05-06 00:19:00,
2013-05-05 20:22:00,59.7,59.7,30.31,NW,315,5.0,6.0,0,0.00,,,0.00,meteohub,2013-05-06 00:22:00,
2013-05-05 20:23:00,59.7,59.7,30.31,NW,315,5.0,6.0,0,0.00,,,0.00,meteohub,2013-05-06 00:23:00,
2013-05-05 20:24:00,59.7,59.7,30.32,NW,315,5.0,6.0,0,0.00,,,0.00,meteohub,2013-05-06 00:24:00,
2013-05-05 20:25:00,59.7,59.7,30.32,NW,315,5.0,6.0,0,0.00,,,0.00,meteohub,2013-05-06 00:25:00,
2013-05-05 20:27:00,59.2,59.2,30.31,East,90,4.0,5.0,0,0.00,,,0.00,meteohub,2013-05-06 00:27:00,
2013-05-05 20:28:00,59.2,59.2,30.31,East,90,5.0,5.0,0,0.00,,,0.00,meteohub,2013-05-06 00:28:00,
2013-05-05 20:30:00,59.0,59.0,30.31,East,90,3.0,5.0,0,0.00,,,0.00,meteohub,2013-05-06 00:30:00,
2013-05-05 20:32:00,59.0,59.0,30.32,SE,135,4.0,5.0,0,0.00,,,0.00,meteohub,2013-05-06 00:32:00,
2013-05-05 20:34:00,58.8,58.8,30.32,East,90,3.0,5.0,0,0.00,,,0.00,meteohub,2013-05-06 00:34:00,
2013-05-05 20:35:00,58.6,58.6,30.32,East,90,2.0,5.0,0,0.00,,,0.00,meteohub,2013-05-06 00:35:00,
2013-05-05 20:36:00,58.6,58.6,30.32,WSW,248,3.0,5.0,0,0.00,,,0.00,meteohub,2013-05-06 00:36:00,
2013-05-05 20:38:00,58.5,58.5,30.31,East,90,3.0,5.0,0,0.00,,,0.00,meteohub,2013-05-06 00:38:00,
2013-05-05 20:39:00,58.3,58.3,30.32,East,90,3.0,5.0,0,0.00,,,0.00,meteohub,2013-05-06 00:39:00,
2013-05-05 20:40:00,58.3,58.3,30.31,SE,135,2.0,5.0,0,0.00,,,0.00,meteohub,2013-05-06 00:40:00,
2013-05-05 20:42:00,58.3,58.3,30.32,East,90,2.0,5.0,0,0.00,,,0.00,meteohub,2013-05-06 00:42:00,
2013-05-05 20:43:00,58.1,58.1,30.32,East,90,4.0,5.0,0,0.00,,,0.00,meteohub,2013-05-06 00:43:00,
2013-05-05 20:44:00,58.1,58.1,30.32,SE,135,4.0,5.0,0,0.00,,,0.00,meteohub,2013-05-06 00:44:00,
2013-05-05 20:46:00,57.9,57.9,30.32,SE,135,5.0,5.0,0,0.00,,,0.00,meteohub,2013-05-06 00:46:00,
2013-05-05 20:47:00,57.9,57.9,30.32,NW,315,4.0,5.0,0,0.00,,,0.00,meteohub,2013-05-06 00:47:00,
2013-05-05 20:48:00,57.9,57.9,30.32,East,90,4.0,5.0,0,0.00,,,0.00,meteohub,2013-05-06 00:48:00,
2013-05-05 20:49:00,57.9,57.9,30.31,East,90,3.0,5.0,0,0.00,,,0.00,meteohub,2013-05-06 00:49:00,
2013-05-05 20:51:00,57.7,57.7,30.32,SE,135,4.0,5.0,0,0.00,,,0.00,meteohub,2013-05-06 00:51:00,
2013-05-05 20:52:00,57.7,57.7,30.32,SE,135,2.0,5.0,0,0.00,,,0.00,meteohub,2013-05-06 00:52:00,
2013-05-05 20:53:00,57.6,57.6,30.32,SE,135,2.0,5.0,0,0.00,,,0.00,meteohub,2013-05-06 00:53:00,
2013-05-05 20:55:00,57.6,57.6,30.32,East,90,4.0,5.0,0,0.00,,,0.00,meteohub,2013-05-06 00:55:00,
2013-05-05 20:56:00,57.4,57.4,30.31,SE,135,4.0,5.0,0,0.00,,,0.00,meteohub,2013-05-06 00:56:00,
2013-05-05 20:57:00,57.4,57.4,30.32,East,90,3.0,5.0,0,0.00,,,0.00,meteohub,2013-05-06 00:57:00,
2013-05-05 20:58:00,57.4,57.4,30.32,East,90,3.0,5.0,0,0.00,,,0.00,meteohub,2013-05-06 00:58:00,
2013-05-05 20:59:00,57.4,57.4,30.31,East,90,4.0,5.0,0,0.00,,,0.00,meteohub,2013-05-06 00:59:00,
2013-05-05 21:01:00,57.4,57.4,30.31,SE,135,4.0,5.0,0,0.00,,,0.00,meteohub,2013-05-06 01:01:00,
2013-05-05 21:03:00,57.2,57.2,30.31,ENE,68,4.0,5.0,0,0.00,,,0.00,meteohub,2013-05-06 01:03:00,
2013-05-05 21:06:00,57.0,57.0,30.32,WSW,248,3.0,4.0,0,0.00,,,0.00,meteohub,2013-05-06 01:06:00,
2013-05-05 21:08:00,56.8,56.8,30.32,East,90,2.0,4.0,0,0.00,,,0.00,meteohub,2013-05-06 01:08:00,
2013-05-05 21:10:00,56.7,56.7,30.31,East,90,2.0,4.0,0,0.00,,,0.00,meteohub,2013-05-06 01:10:00,
2013-05-05 21:13:00,56.5,56.5,30.32,SE,135,2.0,4.0,0,0.00,,,0.00,meteohub,2013-05-06 01:13:00,
2013-05-05 21:14:00,56.5,56.5,30.32,East,90,2.0,4.0,0,0.00,,,0.00,meteohub,2013-05-06 01:14:00,
2013-05-05 21:15:00,56.3,56.3,30.32,East,90,2.0,4.0,0,0.00,,,0.00,meteohub,2013-05-06 01:15:00,
2013-05-05 21:18:00,56.1,56.1,30.32,East,90,2.0,4.0,0,0.00,,,0.00,meteohub,2013-05-06 01:18:00,
2013-05-05 21:19:00,56.1,56.1,30.32,SE,135,2.0,4.0,0,0.00,,,0.00,meteohub,2013-05-06 01:19:00,
2013-05-05 21:20:00,55.9,55.9,30.32,SE,135,2.0,4.0,0,0.00,,,0.00,meteohub,2013-05-06 01:20:00,
2013-05-05 21:24:00,55.6,55.6,30.32,NW,315,3.0,4.0,0,0.00,,,0.00,meteohub,2013-05-06 01:24:00,
2013-05-05 21:25:00,55.6,55.6,30.32,East,90,4.0,4.0,0,0.00,,,0.00,meteohub,2013-05-06 01:25:00,
2013-05-05 21:26:00,55.6,55.6,30.31,East,90,3.0,3.0,0,0.00,,,0.00,meteohub,2013-05-06 01:26:00,
2013-05-05 21:29:00,55.6,55.6,30.31,SE,135,5.0,5.0,0,0.00,,,0.00,meteohub,2013-05-06 01:29:00,
2013-05-05 21:30:00,55.6,55.6,30.32,East,90,3.0,3.0,0,0.00,,,0.00,meteohub,2013-05-06 01:30:00,
2013-05-05 21:31:00,55.6,55.6,30.31,SE,135,7.0,7.0,0,0.00,,,0.00,meteohub,2013-05-06 01:31:00,
2013-05-05 21:33:00,55.6,55.6,30.32,SE,135,2.0,4.0,0,0.00,,,0.00,meteohub,2013-05-06 01:33:00,
2013-05-05 21:34:00,55.6,55.6,30.32,SE,135,4.0,4.0,0,0.00,,,0.00,meteohub,2013-05-06 01:34:00,
2013-05-05 21:36:00,55.4,55.4,30.32,South,180,3.0,7.0,0,0.00,,,0.00,meteohub,2013-05-06 01:36:00,
2013-05-05 21:37:00,55.4,55.4,30.32,SE,135,2.0,7.0,0,0.00,,,0.00,meteohub,2013-05-06 01:37:00,
2013-05-05 21:38:00,55.4,55.4,30.32,NE,45,1.0,7.0,0,0.00,,,0.00,meteohub,2013-05-06 01:38:00,
2013-05-05 21:40:00,55.2,55.2,30.31,East,90,2.0,7.0,0,0.00,,,0.00,meteohub,2013-05-06 01:40:00,
2013-05-05 21:41:00,55.0,55.0,30.32,West,270,2.0,7.0,0,0.00,,,0.00,meteohub,2013-05-06 01:41:00,
2013-05-05 21:42:00,54.9,54.9,30.31,SE,135,2.0,7.0,0,0.00,,,0.00,meteohub,2013-05-06 01:42:00,
2013-05-05 21:43:00,54.9,54.9,30.32,South,180,2.0,7.0,0,0.00,,,0.00,meteohub,2013-05-06 01:43:00,
2013-05-05 21:46:00,54.9,54.9,30.32,East,90,3.0,7.0,0,0.00,,,0.00,meteohub,2013-05-06 01:46:00,
2013-05-05 21:47:00,54.9,54.9,30.32,East,90,3.0,7.0,0,0.00,,,0.00,meteohub,2013-05-06 01:47:00,
2013-05-05 21:48:00,54.9,54.9,30.32,East,90,3.0,7.0,0,0.00,,,0.00,meteohub,2013-05-06 01:48:00,
2013-05-05 21:49:00,54.9,54.9,30.32,East,90,3.0,7.0,0,0.00,,,0.00,meteohub,2013-05-06 01:49:00,
2013-05-05 21:52:00,54.9,54.9,30.32,East,90,3.0,3.0,0,0.00,,,0.00,meteohub,2013-05-06 01:52:00,
2013-05-05 21:53:00,54.5,54.5,30.32,WSW,248,2.0,3.0,0,0.00,,,0.00,meteohub,2013-05-06 01:53:00,
2013-05-05 21:54:00,54.7,54.7,30.32,East,90,3.0,3.0,0,0.00,,,0.00,meteohub,2013-05-06 01:54:00,
2013-05-05 21:55:00,54.5,54.5,30.32,SE,135,2.0,4.0,0,0.00,,,0.00,meteohub,2013-05-06 01:55:00,
2013-05-05 21:57:00,54.7,54.7,30.32,SE,135,2.0,4.0,0,0.00,,,0.00,meteohub,2013-05-06 01:57:00,
2013-05-05 21:59:00,54.5,54.5,30.32,East,90,2.0,4.0,0,0.00,,,0.00,meteohub,2013-05-06 01:59:00,
2013-05-05 22:00:00,54.5,54.5,30.32,South,180,2.0,4.0,0,0.00,,,0.00,meteohub,2013-05-06 02:00:00,
2013-05-05 22:01:00,54.5,54.5,30.32,South,180,2.0,4.0,0,0.00,,,0.00,meteohub,2013-05-06 02:01:00,
2013-05-05 22:02:00,54.5,54.5,30.32,South,180,2.0,4.0,0,0.00,,,0.00,meteohub,2013-05-06 02:02:00,
2013-05-05 22:05:00,54.5,54.5,30.32,South,180,2.0,4.0,0,0.00,,,0.00,meteohub,2013-05-06 02:05:00,
2013-05-05 22:07:00,54.1,54.1,30.32,South,180,3.0,4.0,0,0.00,,,0.00,meteohub,2013-05-06 02:07:00,
2013-05-05 22:10:00,54.1,54.1,30.32,SE,135,2.0,4.0,0,0.00,,,0.00,meteohub,2013-05-06 02:10:00,
2013-05-05 22:11:00,54.1,54.1,30.32,SE,135,2.0,4.0,0,0.00,,,0.00,meteohub,2013-05-06 02:11:00,
2013-05-05 22:13:00,54.0,54.0,30.32,South,180,2.0,4.0,0,0.00,,,0.00,meteohub,2013-05-06 02:13:00,
2013-05-05 22:16:00,53.8,53.8,30.32,South,180,3.0,4.0,0,0.00,,,0.00,meteohub,2013-05-06 02:16:00,
2013-05-05 22:18:00,53.8,53.8,30.32,East,90,2.0,4.0,0,0.00,,,0.00,meteohub,2013-05-06 02:18:00,
2013-05-05 22:19:00,53.8,53.8,30.32,East,90,2.0,4.0,0,0.00,,,0.00,meteohub,2013-05-06 02:19:00,
2013-05-05 22:21:00,53.6,53.6,30.32,East,90,3.0,4.0,0,0.00,,,0.00,meteohub,2013-05-06 02:21:00,
2013-05-05 22:23:00,53.6,53.6,30.32,SE,135,4.0,4.0,0,0.00,,,0.00,meteohub,2013-05-06 02:23:00,
2013-05-05 22:24:00,53.6,53.6,30.32,East,90,4.0,4.0,0,0.00,,,0.00,meteohub,2013-05-06 02:24:00,
2013-05-05 22:25:00,53.6,53.6,30.32,East,90,4.0,4.0,0,0.00,,,0.00,meteohub,2013-05-06 02:25:00,
2013-05-05 22:26:00,53.8,53.8,30.32,SE,135,2.0,4.0,0,0.00,,,0.00,meteohub,2013-05-06 02:26:00,
2013-05-05 22:29:00,53.8,53.8,30.32,North,0,3.0,4.0,0,0.00,,,0.00,meteohub,2013-05-06 02:29:00,
2013-05-05 22:30:00,53.8,53.8,30.32,SE,135,5.0,5.0,0,0.00,,,0.00,meteohub,2013-05-06 02:30:00,
2013-05-05 22:31:00,53.8,53.8,30.32,East,90,2.0,4.0,0,0.00,,,0.00,meteohub,2013-05-06 02:31:00,
2013-05-05 22:34:00,53.6,53.6,30.32,SE,135,2.0,4.0,0,0.00,,,0.00,meteohub,2013-05-06 02:34:00,
2013-05-05 22:35:00,53.6,53.6,30.32,East,90,4.0,6.0,0,0.00,,,0.00,meteohub,2013-05-06 02:35:00,
2013-05-05 22:36:00,53.6,53.6,30.32,WSW,248,3.0,6.0,0,0.00,,,0.00,meteohub,2013-05-06 02:36:00,
2013-05-05 22:37:00,53.6,53.6,30.32,East,90,2.0,6.0,0,0.00,,,0.00,meteohub,2013-05-06 02:37:00,
2013-05-05 22:39:00,53.4,53.4,30.32,SE,135,2.0,6.0,0,0.00,,,0.00,meteohub,2013-05-06 02:39:00,
2013-05-05 22:41:00,53.4,53.4,30.32,NE,45,2.0,6.0,0,0.00,,,0.00,meteohub,2013-05-06 02:41:00,
2013-05-05 22:43:00,53.2,53.2,30.32,North,0,2.0,6.0,0,0.00,,,0.00,meteohub,2013-05-06 02:43:00,
2013-05-05 22:45:00,53.2,53.2,30.32,West,270,1.0,6.0,0,0.00,,,0.00,meteohub,2013-05-06 02:45:00,
2013-05-05 22:46:00,53.1,53.1,30.32,SE,135,2.0,6.0,0,0.00,,,0.00,meteohub,2013-05-06 02:46:00,
2013-05-05 22:48:00,53.1,53.1,30.32,West,270,3.0,6.0,0,0.00,,,0.00,meteohub,2013-05-06 02:48:00,
2013-05-05 22:49:00,53.1,53.1,30.32,WSW,248,2.0,6.0,0,0.00,,,0.00,meteohub,2013-05-06 02:49:00,
2013-05-05 22:50:00,53.1,53.1,30.32,West,270,1.0,4.0,0,0.00,,,0.00,meteohub,2013-05-06 02:50:00,
2013-05-05 22:53:00,52.9,52.9,30.32,WSW,248,2.0,4.0,0,0.00,,,0.00,meteohub,2013-05-06 02:53:00,
2013-05-05 22:54:00,52.7,52.7,30.32,South,180,2.0,4.0,0,0.00,,,0.00,meteohub,2013-05-06 02:54:00,
2013-05-05 22:55:00,52.7,52.7,30.32,WSW,248,2.0,4.0,0,0.00,,,0.00,meteohub,2013-05-06 02:55:00,
2013-05-05 22:56:00,52.5,52.5,30.32,South,180,2.0,4.0,0,0.00,,,0.00,meteohub,2013-05-06 02:56:00,
2013-05-05 22:59:00,52.5,52.5,30.32,SE,135,2.0,4.0,0,0.00,,,0.00,meteohub,2013-05-06 02:59:00,
2013-05-05 23:00:00,52.5,52.5,30.32,WSW,248,3.0,4.0,0,0.00,,,0.00,meteohub,2013-05-06 03:00:00,
2013-05-05 23:01:00,52.5,52.5,30.32,WSW,248,3.0,4.0,0,0.00,,,0.00,meteohub,2013-05-06 03:01:00,
2013-05-05 23:04:00,52.5,52.5,30.32,WSW,248,3.0,4.0,0,0.00,,,0.00,meteohub,2013-05-06 03:04:00,
2013-05-05 23:05:00,52.5,52.5,30.32,WSW,248,3.0,3.0,0,0.00,,,0.00,meteohub,2013-05-06 03:05:00,
2013-05-05 23:06:00,52.5,52.5,30.32,WSW,248,3.0,3.0,0,0.00,,,0.00,meteohub,2013-05-06 03:06:00,
2013-05-05 23:07:00,52.2,52.2,30.32,North,0,2.0,3.0,0,0.00,,,0.00,meteohub,2013-05-06 03:07:00,
2013-05-05 23:09:00,52.0,52.0,30.32,East,90,0.0,3.0,0,0.00,,,0.00,meteohub,2013-05-06 03:09:00,
2013-05-05 23:11:00,52.0,52.0,30.32,East,90,2.0,3.0,0,0.00,,,0.00,meteohub,2013-05-06 03:11:00,
2013-05-05 23:12:00,52.0,52.0,30.32,East,90,3.0,3.0,0,0.00,,,0.00,meteohub,2013-05-06 03:12:00,
2013-05-05 23:13:00,52.0,52.0,30.32,East,90,3.0,3.0,0,0.00,,,0.00,meteohub,2013-05-06 03:13:00,
2013-05-05 23:15:00,52.0,52.0,30.32,NE,45,4.0,4.0,0,0.00,,,0.00,meteohub,2013-05-06 03:15:00,
2013-05-05 23:18:00,52.0,52.0,30.32,South,180,2.0,3.0,0,0.00,,,0.00,meteohub,2013-05-06 03:18:00,
2013-05-05 23:20:00,52.0,52.0,30.32,East,90,3.0,4.0,0,0.00,,,0.00,meteohub,2013-05-06 03:20:00,
2013-05-05 23:21:00,52.0,52.0,30.32,East,90,4.0,4.0,0,0.00,,,0.00,meteohub,2013-05-06 03:21:00,
2013-05-05 23:22:00,52.0,52.0,30.32,East,90,4.0,4.0,0,0.00,,,0.00,meteohub,2013-05-06 03:22:00,
2013-05-05 23:23:00,52.2,52.2,30.32,East,90,5.0,5.0,0,0.00,,,0.00,meteohub,2013-05-06 03:23:00,
2013-05-05 23:24:00,52.3,52.3,30.32,East,90,2.0,4.0,0,0.00,,,0.00,meteohub,2013-05-06 03:24:00,
2013-05-05 23:25:00,52.3,52.3,30.32,SE,135,2.0,5.0,0,0.00,,,0.00,meteohub,2013-05-06 03:25:00,
2013-05-05 23:26:00,52.3,52.3,30.32,East,90,2.0,5.0,0,0.00,,,0.00,meteohub,2013-05-06 03:26:00,
2013-05-05 23:27:00,52.3,52.3,30.32,SE,135,3.0,5.0,0,0.00,,,0.00,meteohub,2013-05-06 03:27:00,
2013-05-05 23:30:00,52.2,52.2,30.32,WSW,248,2.0,5.0,0,0.00,,,0.00,meteohub,2013-05-06 03:30:00,
2013-05-05 23:31:00,52.0,52.0,30.32,East,90,2.0,5.0,0,0.00,,,0.00,meteohub,2013-05-06 03:31:00,
2013-05-05 23:32:00,52.0,52.0,30.32,SE,135,1.0,5.0,0,0.00,,,0.00,meteohub,2013-05-06 03:32:00,
2013-05-05 23:33:00,52.0,52.0,30.32,SE,135,2.0,5.0,0,0.00,,,0.00,meteohub,2013-05-06 03:33:00,
2013-05-05 23:35:00,51.8,51.8,30.32,East,90,2.0,5.0,0,0.00,,,0.00,meteohub,2013-05-06 03:35:00,
2013-05-05 23:36:00,51.8,51.8,30.32,SSE,158,2.0,5.0,0,0.00,,,0.00,meteohub,2013-05-06 03:36:00,
2013-05-05 23:38:00,51.8,51.8,30.32,East,90,2.0,5.0,0,0.00,,,0.00,meteohub,2013-05-06 03:38:00,
2013-05-05 23:40:00,51.8,51.8,30.32,East,90,4.0,4.0,0,0.00,,,0.00,meteohub,2013-05-06 03:40:00,
2013-05-05 23:41:00,51.8,51.8,30.32,SE,135,4.0,4.0,0,0.00,,,0.00,meteohub,2013-05-06 03:41:00,
2013-05-05 23:42:00,51.8,51.8,30.32,SE,135,4.0,4.0,0,0.00,,,0.00,meteohub,2013-05-06 03:42:00,
2013-05-05 23:43:00,51.8,51.8,30.32,East,90,5.0,5.0,0,0.00,,,0.00,meteohub,2013-05-06 03:43:00,
2013-05-05 23:44:00,52.0,52.0,30.32,East,90,5.0,5.0,0,0.00,,,0.00,meteohub,2013-05-06 03:44:00,
2013-05-05 23:46:00,52.0,52.0,30.32,SE,135,4.0,4.0,0,0.00,,,0.00,meteohub,2013-05-06 03:46:00,
2013-05-05 23:47:00,52.0,52.0,30.32,SE,135,4.0,4.0,0,0.00,,,0.00,meteohub,2013-05-06 03:47:00,
2013-05-05 23:48:00,52.0,52.0,30.32,East,90,4.0,4.0,0,0.00,,,0.00,meteohub,2013-05-06 03:48:00,
2013-05-05 23:50:00,52.0,52.0,30.32,SE,135,4.0,5.0,0,0.00,,,0.00,meteohub,2013-05-06 03:50:00,
2013-05-05 23:51:00,52.0,52.0,30.32,SE,135,6.0,6.0,0,0.00,,,0.00,meteohub,2013-05-06 03:51:00,
2013-05-05 23:52:00,52.0,52.0,30.32,SE,135,4.0,5.0,0,0.00,,,0.00,meteohub,2013-05-06 03:52:00,
2013-05-05 23:54:00,52.0,52.0,30.32,East,90,4.0,5.0,0,0.00,,,0.00,meteohub,2013-05-06 03:54:00,
2013-05-05 23:56:00,52.0,52.0,30.32,East,90,4.0,6.0,0,0.00,,,0.00,meteohub,2013-05-06 03:56:00,
2013-05-05 23:57:00,52.0,52.0,30.32,East,90,4.0,6.0,0,0.00,,,0.00,meteohub,2013-05-06 03:57:00,
2013-05-05 23:59:00,52.0,52.0,30.32,East,90,5.0,6.0,0,0.00,,,0.00,meteohub,2013-05-06 03:59:00,